GEFSNE_500_meanwind_048.txt.gz
Wind_Speed
35 36 38 39 39 40 41 41 41 40 40 41 41 41 43 44 45 44 46 47 47 47 47 48 48 47 46 45 43 41 39 36 34 32 32 31 30 30
35 36 37 39 40 40 41 42 42 42 41 42 41 42 43 44 45 45 45 46 47 46 47 48 49 49 48 46 44 43 40 38 36 34 32 32 31 30
36 36 37 38 38 40 41 42 43 43 43 43 43 43 43 43 44 45 46 46 46 46 47 48 49 50 50 48 46 44 42 40 37 35 33 32 31 30
36 36 36 37 37 39 40 41 42 43 44 44 45 45 45 44 44 45 46 47 45 46 47 49 49 50 50 49 48 45 44 42 40 37 35 34 32 31
35 35 35 35 36 37 39 40 41 43 43 44 46 46 46 45 45 45 46 46 45 46 47 49 50 50 50 50 50 47 46 44 41 39 37 35 33 32
35 34 34 34 35 36 37 39 40 42 43 44 45 47 46 46 46 46 46 46 46 45 46 48 50 51 51 51 50 48 47 44 42 40 38 36 34 33
35 34 34 34 34 35 36 37 39 40 42 44 45 46 48 47 47 46 46 46 46 46 46 47 48 50 52 52 52 50 48 46 43 41 39 37 35 33
34 34 34 33 34 35 36 37 39 40 42 44 45 47 48 48 48 48 46 45 44 45 45 46 47 49 51 53 52 51 49 47 44 42 40 38 36 34
33 33 33 33 33 34 35 37 38 40 42 44 45 47 49 50 50 50 49 47 45 44 45 46 46 47 49 51 53 52 51 48 46 44 41 39 37 35
32 32 32 33 33 33 34 35 37 39 41 43 45 47 50 51 51 51 50 49 46 45 45 45 45 46 48 50 52 52 51 48 47 44 42 40 37 35
32 31 31 32 32 32 33 34 36 39 42 44 45 48 50 51 52 52 51 51 48 46 45 44 45 45 46 47 49 51 49 47 46 44 42 40 38 36
31 31 31 31 32 32 33 34 35 38 41 44 46 47 50 52 53 53 53 52 51 49 48 45 44 43 44 47 48 51 51 49 46 45 43 41 39 37
31 31 31 30 31 32 33 34 35 36 38 42 45 47 49 51 53 54 54 55 53 51 49 47 45 44 44 47 49 51 51 50 48 46 44 42 40 38
30 30 30 30 30 30 31 32 34 35 36 39 42 46 48 50 52 54 55 56 56 53 50 48 46 45 45 47 48 49 49 49 49 47 45 43 41 39
29 29 29 29 28 28 28 29 30 32 34 36 39 43 47 50 51 53 55 58 58 57 53 50 48 45 45 47 49 49 50 50 50 48 46 44 43 40
28 28 28 27 27 27 27 27 28 29 32 34 37 40 45 49 50 53 55 57 58 58 56 53 50 48 46 46 49 49 50 50 49 48 47 46 44 41
28 27 27 26 26 25 25 25 26 27 29 32 36 38 42 46 50 52 54 57 58 59 59 56 53 50 49 48 49 50 51 51 50 49 48 47 44 42
27 26 25 24 24 23 24 23 24 25 26 28 32 35 39 43 48 52 54 56 57 58 59 58 57 55 52 51 51 51 51 51 51 51 49 47 45 42
25 25 24 23 23 22 22 22 22 22 23 25 28 31 35 39 45 50 53 54 56 57 58 59 58 57 54 52 52 51 51 51 51 51 50 48 45 43
24 24 23 22 20 20 20 20 20 20 20 21 24 27 31 36 42 47 51 52 54 56 57 59 58 56 54 54 54 53 53 52 52 51 50 49 47 45
24 23 22 20 19 18 18 18 17 17 18 18 20 23 27 32 38 43 48 51 53 55 57 57 57 56 55 56 56 55 55 55 53 53 51 50 48 46
23 21 20 18 18 17 17 16 15 15 15 16 17 20 24 29 35 40 44 47 50 53 55 56 57 57 57 55 55 56 56 55 54 53 53 51 49 47
21 20 18 17 17 16 16 15 14 14 14 14 15 18 21 26 31 37 41 44 48 52 54 56 57 56 55 55 56 57 57 56 55 54 52 51 49 48

GEFSNE_500_meanwind_054.txt.gz
Wind_Speed
32 33 34 35 35 36 36 37 37 37 37 39 40 40 40 40 40 40 41 42 43 44 45 45 46 47 49 49 48 47 47 46 44 42 40 37 34 32
35 35 36 37 38 38 39 39 39 39 39 40 41 42 42 42 42 42 42 43 44 45 45 46 46 46 48 49 49 48 47 47 46 44 41 39 36 33
37 38 38 39 39 40 40 40 41 41 41 40 42 43 43 43 44 44 44 44 44 45 46 47 48 47 47 48 50 49 48 47 47 46 44 41 38 35
39 39 39 40 39 40 40 40 41 41 41 41 42 43 44 45 45 45 46 45 45 45 46 48 48 48 48 47 48 49 49 48 48 47 46 44 41 38
40 40 40 39 39 39 39 40 40 41 41 41 41 43 44 45 45 45 46 46 45 45 46 47 47 48 48 48 48 48 49 49 48 48 47 45 42 39
40 39 39 38 37 37 38 38 39 40 40 40 41 41 43 44 45 45 45 46 46 46 46 47 46 47 48 47 48 48 48 48 49 49 48 46 44 41
39 38 37 36 36 36 36 36 37 38 38 39 39 40 41 42 44 45 45 45 45 45 45 45 46 46 47 47 48 48 49 48 49 49 48 47 45 43
38 37 36 35 35 34 34 35 35 36 37 38 38 38 39 40 42 43 44 44 43 44 44 44 45 46 46 46 48 48 48 48 49 49 48 48 46 44
37 36 35 34 34 33 33 34 34 35 35 36 36 36 37 39 40 42 43 44 43 43 43 43 44 45 45 46 47 49 48 48 49 50 49 49 48 45
37 36 35 34 34 33 32 32 32 33 34 34 34 35 36 37 39 41 42 43 44 43 43 42 43 44 45 44 45 47 49 48 50 50 50 50 49 47
37 36 34 33 33 33 32 31 31 32 33 33 33 34 35 36 38 40 42 43 43 43 44 43 43 42 43 44 44 45 47 48 49 50 50 50 50 49
36 35 34 32 32 32 32 32 32 32 33 33 33 34 34 36 37 38 40 43 43 44 45 44 43 43 42 43 43 43 45 46 47 49 50 50 51 51
35 34 33 33 32 33 33 33 33 33 32 33 33 33 34 34 36 38 39 41 44 44 45 46 45 44 43 42 42 42 44 45 45 47 50 52 53 52
34 33 33 33 33 33 33 33 33 32 32 32 32 33 33 34 35 36 39 41 43 44 46 47 47 45 44 43 43 42 43 43 43 44 48 51 52 51
34 33 33 33 33 32 32 32 31 31 31 31 31 32 32 33 34 34 36 40 43 44 45 47 47 47 45 43 42 42 42 42 42 43 44 48 50 51
34 33 33 33 32 32 31 30 30 30 30 31 31 31 31 32 33 33 34 37 40 43 44 46 47 47 45 44 42 41 41 41 42 42 43 46 49 50
33 32 32 32 31 30 29 28 28 28 28 28 28 28 29 30 31 33 34 35 38 42 44 46 47 47 46 44 42 41 40 39 41 42 43 43 46 48
33 32 31 31 30 29 28 27 27 27 27 26 26 27 27 28 29 31 33 34 36 40 43 44 46 48 48 46 44 42 42 40 41 42 43 44 45 47
32 31 30 29 28 27 27 27 26 26 26 26 25 26 27 28 29 30 32 33 35 38 41 44 45 47 48 48 46 44 43 42 41 42 43 44 44 46
31 30 29 28 27 26 26 26 25 25 25 24 24 24 25 26 27 29 30 32 34 37 41 44 45 45 46 47 48 47 45 42 42 42 42 43 44 46
30 28 28 27 26 26 25 25 25 24 24 23 23 23 23 24 25 27 29 31 33 36 39 42 45 46 47 48 48 47 46 44 42 43 43 44 45 47
28 28 27 26 26 25 25 24 23 23 23 23 23 23 23 24 24 25 26 29 31 34 37 40 44 47 48 48 48 47 46 46 44 43 44 44 45 45
28 27 27 26 26 25 25 24 23 23 22 22 22 22 21 22 23 24 25 27 30 32 35 38 43 46 47 48 48 48 47 46 46 44 44 44 45 46

GEFSNE_500_meanwind_060.txt.gz
Wind_Speed
25 26 27 27 28 28 29 29 30 30 32 33 34 35 35 35 36 37 38 39 40 40 41 42 43 43 43 43 45 46 46 45 45 44 43 41 39 37
27 28 29 30 30 31 31 32 32 33 33 35 37 37 37 37 38 38 39 41 41 42 42 43 44 44 44 45 46 47 46 46 45 46 45 44 42 40
30 31 31 32 32 33 34 35 35 35 35 36 38 39 40 40 41 41 41 42 43 43 44 44 44 45 46 46 47 48 49 47 46 46 47 46 45 43
32 33 33 33 34 35 35 36 37 37 37 37 39 41 41 42 42 43 43 43 44 45 45 45 46 46 47 47 48 49 49 49 48 48 48 47 47 45
34 34 35 35 36 36 36 37 37 37 37 37 38 40 41 42 43 43 43 44 44 45 46 47 47 47 48 49 49 49 50 50 49 49 49 49 48 47
35 36 36 37 37 37 37 37 37 37 37 36 37 38 40 41 42 43 43 44 45 46 47 48 48 48 48 49 49 49 50 50 50 50 50 50 50 49
37 37 38 38 38 38 37 37 37 36 36 36 36 37 38 39 40 41 42 43 44 45 47 48 49 49 49 50 50 50 50 51 51 50 50 50 51 50
38 39 39 39 39 38 38 37 37 36 36 36 36 36 36 38 38 39 39 41 42 45 46 47 49 50 50 51 51 51 51 51 51 51 50 50 50 50
39 39 40 40 39 39 38 37 37 37 36 36 35 35 36 37 37 37 38 39 39 42 44 45 48 49 50 50 51 51 51 52 51 52 51 51 50 50
40 41 41 41 40 39 38 37 37 37 36 35 34 34 35 36 36 37 38 38 39 41 43 43 46 47 49 49 50 50 51 52 51 52 52 52 51 51
42 42 42 41 40 39 37 37 37 37 36 35 33 33 34 35 35 36 36 37 37 40 42 42 43 46 48 48 49 50 51 52 52 51 52 53 52 52
44 44 43 42 40 38 37 36 36 36 36 34 34 33 34 35 35 35 36 36 36 38 41 41 42 45 46 47 48 49 50 51 52 52 52 53 53 53
45 44 43 42 40 38 37 36 35 35 34 34 34 34 34 35 36 36 36 36 36 37 40 41 42 44 45 46 47 48 49 50 51 51 52 52 53 53
46 45 43 42 40 38 37 36 36 34 34 33 33 33 33 34 34 35 35 36 36 37 39 41 41 43 44 46 47 47 48 49 50 51 51 52 52 53
46 45 43 41 40 38 37 36 35 34 33 32 32 32 32 32 33 33 34 35 35 36 38 40 41 42 43 44 46 48 47 48 50 50 51 52 52 52
46 44 42 40 39 37 36 35 34 33 32 31 31 31 31 31 31 32 33 34 34 35 36 38 40 42 43 43 46 47 47 46 47 49 50 51 51 50
46 43 41 40 38 37 35 34 33 32 31 31 30 30 30 30 30 31 32 33 33 34 36 37 39 41 43 43 44 46 48 47 46 47 49 49 50 50
45 42 40 39 37 35 34 32 32 31 30 30 29 29 29 30 30 31 31 32 32 33 35 36 38 40 41 42 43 45 47 48 47 47 48 48 48 49
44 41 39 38 36 34 32 31 30 30 29 29 29 28 28 29 29 30 30 30 31 32 34 35 36 38 40 40 41 44 46 48 48 47 46 47 48 48
42 40 38 36 35 33 31 30 29 28 28 28 28 27 28 28 28 28 29 29 30 31 33 34 35 36 38 40 41 42 44 46 47 47 47 46 47 48
40 39 37 35 33 31 29 29 28 28 28 28 27 27 27 27 27 27 28 28 29 30 31 33 35 36 37 39 39 40 42 44 46 47 46 47 46 47
37 35 34 32 31 30 29 29 28 28 28 28 28 28 27 27 26 26 26 27 28 29 30 32 35 36 36 37 38 40 42 44 45 46 46 47 47 45
33 32 30 29 29 29 28 29 28 28 27 27 27 27 26 26 25 25 26 26 27 28 30 32 34 35 36 37 38 40 42 44 45 45 46 47 48 47

GEFSNE_500_meanwind_066.txt.gz
Wind_Speed
20 20 21 21 22 22 23 23 24 25 26 26 27 27 28 30 30 31 32 33 34 35 37 38 39 40 40 40 41 40 41 42 44 45 45 44 43 41
22 23 23 23 24 24 24 24 26 27 28 30 30 30 31 32 33 34 34 35 36 37 38 39 41 42 42 43 43 43 43 43 44 45 46 47 46 45
24 25 25 25 25 25 25 26 27 27 28 30 32 33 33 34 35 36 37 38 38 40 41 41 42 43 44 45 45 45 46 45 46 46 46 47 49 48
27 27 28 28 27 27 27 28 29 29 29 30 32 33 34 35 36 38 39 40 41 42 43 44 44 45 45 46 47 47 48 48 48 48 47 47 48 50
29 30 30 30 30 30 30 31 31 31 31 31 32 34 35 36 37 38 40 41 42 44 45 46 47 48 48 48 49 49 50 50 50 50 50 49 49 50
32 32 32 32 32 32 32 32 32 32 33 32 33 35 36 37 38 39 40 41 42 44 45 47 49 49 50 50 50 51 52 52 51 52 52 51 51 50
34 34 34 34 34 33 34 34 34 35 35 35 35 36 37 39 39 40 40 41 42 43 45 47 49 50 51 52 52 52 53 53 53 53 54 54 52 52
36 36 36 36 36 36 36 36 37 37 38 38 38 38 39 41 41 41 41 40 41 43 44 45 47 48 51 52 53 54 54 54 55 54 54 55 54 53
38 39 39 38 38 38 38 39 39 39 40 40 39 40 41 42 42 42 41 41 41 42 43 43 45 46 48 50 52 53 54 55 56 56 55 55 56 56
41 41 41 41 41 41 40 40 41 41 42 42 41 41 42 43 43 42 42 41 41 42 43 42 43 45 46 47 49 51 53 54 55 56 57 56 56 56
44 43 43 43 44 43 43 42 43 43 44 43 42 42 42 42 43 42 42 41 40 40 42 42 42 44 45 45 47 49 51 53 54 55 56 57 57 57
47 46 46 46 47 46 46 45 45 45 46 45 44 43 42 42 42 42 41 40 39 38 40 41 41 43 43 45 46 47 48 50 52 54 55 56 57 57
50 49 49 50 49 49 49 48 48 47 46 46 44 43 43 43 43 42 41 40 39 38 39 41 40 41 41 42 44 46 47 48 50 52 54 55 56 57
53 53 53 53 53 53 52 51 50 49 48 46 44 43 43 43 42 41 40 40 39 38 39 39 39 40 40 40 41 45 46 47 48 50 52 54 55 56
57 56 56 57 56 55 54 53 52 50 48 46 43 42 43 43 42 40 40 39 38 38 38 39 39 40 40 39 40 42 45 46 47 48 50 52 54 55
61 60 60 60 58 57 55 54 52 50 48 45 43 42 42 41 40 40 39 38 37 37 37 38 38 38 39 39 39 40 43 44 46 48 49 50 52 53
64 63 62 61 59 57 55 53 51 49 47 45 43 42 41 40 39 39 38 37 36 36 36 37 38 37 37 37 38 39 41 43 45 47 48 49 49 51
66 65 63 61 59 56 54 52 50 48 46 45 43 41 40 39 39 38 37 36 35 35 35 37 37 37 36 36 37 38 40 42 43 45 47 47 48 49
66 64 61 59 57 54 53 51 49 46 44 43 41 40 39 39 38 37 36 35 35 34 35 36 36 37 37 36 37 39 39 40 42 43 44 46 47 49
64 61 59 56 54 52 50 48 46 44 43 42 40 39 38 38 36 35 35 35 35 34 34 34 35 36 36 36 36 38 39 39 40 41 42 44 45 47
58 56 53 51 50 48 46 44 43 42 42 41 39 38 37 36 35 34 34 34 33 33 32 33 34 34 34 34 34 35 37 38 39 40 41 42 43 45
49 47 45 44 43 41 40 39 39 39 38 37 36 35 34 34 34 34 33 33 32 32 32 32 32 32 32 32 32 33 35 36 37 38 39 40 41 43
40 39 38 37 36 35 35 34 34 34 34 34 33 33 33 33 33 33 33 32 32 32 31 31 32 32 32 32 32 32 34 35 36 36 37 38 39 42

GEFSNE_500_meanwind_072.txt.gz
Wind_Speed
16 16 17 17 17 18 18 19 19 20 21 21 21 22 23 24 25 26 27 28 29 29 30 30 31 32 32 33 34 36 37 38 38 38 40 43 44 44
19 19 19 19 20 20 21 21 22 22 23 24 23 23 24 24 25 27 28 29 30 31 32 32 33 34 34 35 35 36 37 39 40 40 41 42 43 46
21 21 21 22 22 22 23 23 24 24 25 26 26 26 26 26 26 27 28 29 30 31 33 34 34 35 36 37 37 38 39 39 41 42 43 43 44 45
24 24 24 24 24 25 25 25 26 26 27 28 29 29 28 28 28 28 29 29 31 32 33 34 35 36 38 39 39 40 41 41 42 43 44 46 46 46
26 26 27 27 27 27 27 28 28 28 28 29 30 31 31 30 30 30 30 30 31 32 33 35 36 37 38 40 41 42 43 44 44 45 46 47 48 48
29 29 29 29 30 30 30 30 30 30 31 31 31 32 32 33 33 33 32 32 32 33 34 35 36 38 39 41 42 43 44 46 47 47 48 48 49 50
32 32 32 32 32 32 32 33 33 33 33 33 33 34 35 35 35 35 35 35 34 35 35 36 37 38 40 41 42 44 45 46 48 49 50 50 51 52
34 35 35 35 35 35 36 36 36 36 36 36 36 36 37 38 38 38 37 37 37 38 38 38 39 39 41 42 43 44 46 47 48 50 52 53 53 54
37 38 38 39 39 39 39 39 39 39 40 40 39 39 40 40 40 40 40 40 40 40 40 40 41 42 42 43 44 45 46 47 49 50 52 53 54 55
41 41 41 42 43 43 44 43 43 42 43 44 43 42 42 43 43 43 42 42 42 42 42 42 43 44 44 44 45 45 46 47 48 50 51 53 54 56
45 45 46 46 46 47 48 48 46 46 46 46 45 44 44 45 46 46 45 45 44 44 44 44 44 45 45 45 46 46 47 47 47 48 50 51 53 55
50 50 50 49 50 50 52 52 50 49 50 50 48 47 47 47 48 48 48 47 47 46 46 46 45 46 46 46 46 46 46 47 47 47 48 49 51 53
54 54 54 53 53 54 55 55 54 53 53 53 52 51 50 50 50 51 50 49 49 47 47 47 46 46 47 46 46 46 46 46 46 46 47 48 49 51
57 57 58 58 58 58 58 58 58 58 57 56 56 55 54 53 53 52 51 50 50 49 48 48 47 46 47 46 45 45 46 46 46 46 46 46 48 49
61 61 61 62 62 62 62 62 62 62 61 60 59 57 57 56 55 54 53 52 51 49 48 47 48 47 46 45 45 45 45 45 45 45 45 45 45 47
64 65 65 65 66 66 66 65 64 64 64 63 61 60 58 58 56 55 54 53 52 50 48 47 47 46 46 45 44 43 43 43 43 43 43 43 44 44
68 69 69 69 69 69 68 67 66 66 65 63 62 60 59 58 57 55 54 52 51 49 47 46 45 45 45 44 43 42 42 42 42 42 43 42 42 43
72 71 71 71 70 69 68 67 66 65 64 62 61 60 58 56 55 54 52 51 50 48 46 45 45 44 43 41 41 41 41 41 41 42 42 41 41 42
72 71 70 69 68 67 66 65 63 62 61 59 58 56 54 53 52 51 51 49 48 46 44 44 43 43 42 40 39 40 40 40 40 40 40 40 40 41
68 67 66 65 64 63 61 60 58 56 55 54 52 51 51 51 50 49 49 47 45 44 42 42 42 42 41 40 39 39 38 38 38 39 39 39 39 40
60 58 57 56 55 54 53 52 50 49 48 47 47 47 47 47 47 46 45 44 43 43 42 41 40 40 40 39 38 37 37 37 37 38 38 38 39 40
50 48 46 45 44 43 43 42 41 40 40 40 39 41 41 41 41 41 42 42 41 40 39 39 38 38 38 37 36 35 36 36 36 36 37 37 38 38
40 38 37 36 35 34 33 33 32 32 32 33 34 35 36 37 36 35 35 36 37 36 35 35 35 36 36 36 36 35 35 35 36 35 35 35 36 37

GEFSNE_500_meanwind_078.txt.gz
Wind_Speed
17 17 18 19 19 20 20 20 20 20 19 19 19 20 21 20 20 21 21 21 22 22 22 23 23 24 25 26 27 27 28 28 29 30 31 31 32 32
20 21 21 22 22 22 23 23 23 23 23 23 22 22 23 23 23 24 24 23 24 24 24 24 25 25 26 27 28 29 30 30 30 31 32 33 33 34
23 23 24 24 25 25 25 25 26 26 26 27 26 25 25 26 25 26 26 26 27 27 27 27 27 27 28 29 29 30 31 32 32 33 33 33 34 35
25 26 26 27 27 28 28 28 29 29 29 30 30 29 28 28 28 29 29 28 28 29 30 30 30 30 29 30 30 31 31 32 33 34 35 35 36 36
28 28 28 29 30 30 30 31 32 32 32 32 33 33 32 31 31 31 32 31 31 31 31 31 32 32 32 32 32 32 33 33 34 35 36 37 37 38
30 30 31 32 32 33 33 34 35 35 35 35 35 35 35 35 34 34 34 34 34 34 34 33 34 34 34 34 34 34 35 35 35 36 37 38 38 39
33 33 33 34 35 36 37 37 38 38 38 38 38 38 38 38 38 37 37 36 36 37 36 36 36 35 35 36 36 36 36 36 36 37 37 38 39 40
35 36 36 36 37 38 39 40 41 41 40 40 40 40 40 41 41 40 40 39 38 39 39 38 38 37 37 37 37 37 38 38 38 38 38 39 39 40
37 38 38 39 40 40 41 42 43 44 45 44 44 42 43 44 45 44 43 42 41 41 42 40 40 39 39 39 39 39 39 40 40 40 40 40 40 41
40 41 42 42 43 44 45 45 45 45 46 48 48 46 46 47 48 48 47 46 45 44 45 44 43 42 42 41 41 41 40 41 41 41 41 41 41 42
44 44 45 46 46 47 48 49 49 49 49 50 50 50 50 50 50 51 50 49 48 46 46 47 46 46 45 43 43 43 42 42 42 42 42 43 43 43
46 46 48 49 50 51 51 52 52 52 54 54 54 53 53 52 53 53 53 53 52 50 48 50 49 48 47 45 45 45 44 43 43 43 43 44 45 45
49 50 51 52 53 54 55 56 56 57 57 58 58 58 58 57 56 56 56 56 56 54 52 53 52 51 50 48 47 46 46 45 44 43 43 44 45 45
53 54 55 57 58 59 60 61 61 62 63 63 63 62 62 62 61 60 59 59 58 57 55 55 54 53 52 50 49 47 47 46 46 45 44 44 45 45
57 59 60 62 63 64 65 66 67 67 67 67 67 66 66 66 65 65 63 61 60 58 57 56 57 56 54 52 51 49 48 47 46 46 45 45 44 44
62 64 65 66 68 69 70 70 70 71 71 71 70 69 69 68 68 67 66 64 63 61 59 57 57 57 56 54 53 51 49 47 46 46 46 45 44 43
67 68 70 71 71 72 72 72 72 71 71 70 69 69 68 67 66 65 64 63 63 61 59 57 56 56 56 55 53 51 49 48 47 47 46 45 43 43
72 72 73 73 72 71 70 69 68 67 66 66 66 65 64 63 62 61 60 60 60 58 56 55 55 54 54 52 50 50 49 47 46 45 44 43 42 42
70 69 68 67 65 64 63 61 61 60 60 60 59 58 57 57 56 55 55 56 55 55 54 53 54 54 53 51 48 48 48 46 45 44 43 42 41 41
63 62 60 58 57 56 55 54 53 52 52 51 51 51 51 50 50 49 50 50 51 51 51 51 51 51 50 49 47 46 45 45 43 42 41 41 40 40
55 53 52 51 49 48 46 45 44 44 44 44 43 43 43 44 43 43 44 44 44 44 45 46 46 47 48 47 46 45 44 44 43 42 41 41 41 40
47 46 44 43 41 40 39 38 38 37 37 37 37 36 36 36 35 36 37 38 38 39 40 40 41 42 43 43 43 43 43 43 42 41 40 40 40 40
41 39 38 37 36 35 35 34 33 32 31 30 29 29 29 30 29 29 30 30 32 34 35 35 36 36 37 37 38 38 39 39 39 38 38 38 38 37

GEFSNE_500_meanwind_084.txt.gz
Wind_Speed
13 13 13 13 13 14 14 14 14 15 15 15 16 16 16 16 16 16 16 16 17 17 17 18 19 20 20 21 22 23 23 24 25 25 26 27 28 29
16 16 17 17 17 17 18 18 18 18 18 18 18 19 19 20 20 20 19 19 20 20 20 21 21 21 22 23 24 24 25 25 26 27 28 28 29 31
19 20 20 20 21 21 21 21 21 21 21 21 21 22 22 22 23 23 24 24 24 24 24 24 24 24 25 25 26 26 27 27 28 28 29 30 30 32
23 23 23 23 24 24 24 24 24 24 24 24 24 24 25 25 25 26 26 27 27 27 27 27 27 27 27 28 28 28 29 29 30 30 31 31 32 32
25 26 26 26 26 27 27 27 28 28 28 28 28 28 28 29 29 29 30 30 30 30 31 31 31 31 31 31 31 31 32 32 32 32 33 33 33 34
28 29 29 29 30 30 30 31 31 31 31 31 31 32 32 33 33 33 33 33 33 34 34 34 34 34 34 35 35 34 34 35 35 35 35 35 36 36
31 32 32 33 33 34 34 34 34 34 34 34 34 35 35 36 37 37 36 36 35 36 37 37 37 37 37 37 38 38 37 37 37 37 37 38 38 38
34 35 35 36 36 37 37 37 37 37 38 38 39 38 38 39 40 40 40 39 38 39 41 40 40 40 40 41 41 41 41 40 40 40 40 40 40 40
36 37 37 38 39 40 40 40 40 41 42 42 43 42 42 43 44 45 45 45 43 42 44 43 43 43 44 44 44 44 43 43 43 43 42 42 42 42
38 39 41 41 41 42 43 43 43 44 45 46 46 45 46 46 47 48 49 49 47 47 47 47 46 47 47 48 47 47 47 47 46 46 45 45 44 44
41 43 43 44 44 44 45 45 46 46 47 48 49 49 50 50 51 52 53 53 52 51 52 52 50 51 51 51 51 51 50 49 49 49 48 48 47 47
42 43 43 44 46 47 47 48 48 49 50 51 52 53 54 55 56 57 57 58 58 57 56 57 56 57 56 54 54 54 54 52 52 51 51 50 50 49
43 44 45 46 48 49 50 51 52 53 53 54 55 57 58 59 60 62 63 64 64 63 62 62 62 62 62 59 57 57 57 55 55 54 53 52 52 51
45 46 48 49 51 52 53 55 57 58 59 60 61 62 64 65 66 67 68 69 69 68 67 68 67 67 67 66 63 61 60 59 58 56 55 55 54 53
49 51 52 54 55 57 58 60 62 63 65 66 68 69 70 71 72 72 72 72 72 71 71 71 71 70 70 69 68 66 64 62 61 59 57 57 56 56
53 55 57 59 61 62 64 65 66 68 69 70 72 72 73 74 74 74 74 73 73 71 71 71 71 71 71 70 69 68 66 64 63 62 61 59 58 57
58 60 62 63 64 66 67 68 69 70 71 71 71 71 70 70 69 70 71 71 72 71 69 69 70 70 70 70 70 68 67 65 64 63 63 61 59 58
61 62 63 64 65 65 66 66 67 67 67 66 65 64 63 62 62 62 63 64 65 64 63 63 64 65 66 65 65 65 65 65 64 63 63 62 59 58
60 61 61 61 61 61 62 61 61 59 58 58 57 56 56 55 54 54 54 54 55 55 56 56 57 57 59 59 57 60 60 61 61 61 60 59 58 56
58 58 58 58 58 57 56 55 54 52 51 50 49 48 48 48 48 48 47 47 46 46 46 47 49 51 52 52 51 52 54 55 56 56 56 56 55 54
54 54 54 53 53 51 50 48 46 45 44 42 42 42 41 41 41 40 39 39 39 39 38 38 39 41 42 43 43 43 46 49 50 51 52 52 52 52
49 48 48 47 45 43 42 40 39 39 38 37 36 36 35 35 34 33 33 32 32 32 32 32 33 34 35 36 36 36 39 42 45 45 46 47 48 48
43 42 41 40 38 36 35 34 35 34 33 33 32 32 32 30 29 28 27 27 26 26 26 26 27 28 29 30 30 30 32 35 38 40 41 41 42 43

GEFSNE_500_meanwind_090.txt.gz
Wind_Speed
15 15 15 15 15 15 15 15 16 16 17 17 17 18 18 18 19 19 19 19 20 20 20 20 20 20 21 21 22 22 22 23 23 24 24 25 25 26
19 19 19 19 19 19 19 19 20 20 21 21 21 21 21 22 22 22 23 23 23 23 23 24 24 24 24 24 25 25 25 26 26 27 27 27 28 28
22 22 22 22 23 23 23 23 23 23 24 24 25 25 25 25 26 26 27 27 27 27 27 28 28 28 28 28 28 29 29 29 29 29 30 30 30 30
25 26 26 26 27 27 27 27 27 27 28 28 28 29 29 30 30 30 31 31 31 32 31 31 31 32 32 32 32 33 33 33 33 32 33 33 33 33
29 29 30 30 31 31 31 31 31 32 32 32 32 33 33 34 34 35 35 35 35 35 35 36 36 36 36 36 36 36 36 36 36 36 36 36 36 36
32 33 33 34 34 35 35 35 36 36 36 36 36 37 37 38 38 39 39 39 39 39 39 39 40 40 40 40 39 39 40 40 40 40 40 40 39 39
35 36 37 37 38 39 39 40 40 40 40 41 40 40 41 42 43 43 42 42 42 42 43 43 44 43 43 43 43 43 44 44 44 43 43 43 43 43
37 38 39 40 41 42 43 43 44 44 44 45 45 45 45 45 46 47 47 47 46 45 47 46 47 46 46 46 47 47 47 47 47 46 46 46 46 46
40 41 42 44 44 45 46 46 47 47 48 48 49 49 49 49 50 50 51 51 50 49 50 49 49 49 49 49 50 50 50 50 50 50 49 49 49 49
41 43 44 45 46 46 47 49 50 50 51 52 52 52 53 53 53 54 54 54 53 52 54 53 51 52 52 53 53 54 54 54 54 54 53 53 52 52
44 45 46 47 47 48 50 51 51 52 53 54 55 55 56 56 56 56 56 56 55 55 56 57 57 57 57 56 57 58 58 58 58 58 58 57 56 56
46 47 48 48 49 50 51 52 53 54 55 56 56 56 57 57 58 59 59 59 59 59 60 61 62 63 62 60 61 62 63 63 63 63 62 62 61 60
47 48 49 50 52 52 53 53 54 55 55 56 57 58 60 60 61 63 64 65 65 66 66 68 68 68 69 67 66 67 68 68 68 68 68 67 66 66
49 49 50 51 52 53 54 55 57 58 58 59 60 61 63 64 65 66 68 69 70 71 72 73 74 74 74 73 72 72 72 72 73 72 72 72 71 71
51 52 52 53 55 56 57 59 60 61 62 63 64 65 66 67 68 69 70 71 72 73 75 76 77 77 77 77 76 75 75 74 73 73 73 73 73 73
54 55 56 56 58 59 61 62 63 64 65 65 66 67 68 68 69 70 71 71 71 71 72 73 74 75 74 74 74 73 74 74 73 73 73 73 73 73
56 57 58 59 60 62 63 64 64 65 65 66 67 67 67 68 68 69 69 69 69 67 66 66 67 67 67 67 67 67 68 69 69 69 69 70 70 71
58 58 59 60 61 61 62 62 63 64 64 65 65 65 65 65 65 64 64 63 63 62 61 60 60 60 59 59 60 60 60 61 62 62 63 64 63 63
59 60 60 61 61 61 60 60 60 60 60 60 60 60 60 59 58 57 57 56 55 54 53 53 52 53 53 52 52 54 54 53 54 55 56 57 57 57
59 58 58 58 58 57 56 56 55 55 55 54 54 53 52 51 50 49 48 47 47 46 45 45 46 47 47 47 45 46 48 48 48 48 48 49 50 51
55 55 54 54 53 52 51 50 50 49 48 47 46 45 44 43 42 41 40 40 40 39 39 39 40 41 41 40 39 38 39 41 42 41 41 41 41 42
50 49 48 47 45 44 44 43 43 42 41 40 40 39 38 37 36 35 34 34 34 33 33 34 35 36 36 36 34 33 33 33 34 33 33 34 34 34
43 42 41 40 39 38 37 37 36 36 36 35 35 34 33 32 31 30 30 30 30 29 29 29 30 31 31 30 30 28 27 27 27 27 27 28 28 28

GEFSNE_500_meanwind_096.txt.gz
Wind_Speed
15 15 15 15 15 16 16 17 17 18 19 19 19 20 20 21 21 21 22 22 23 23 23 23 23 23 23 23 23 24 24 24 24 25 25 25 25 25
18 18 19 19 19 20 20 21 22 22 23 23 24 24 25 25 25 25 26 26 26 26 26 27 27 27 27 27 27 27 27 28 28 28 28 28 28 28
21 22 22 23 23 23 24 25 26 26 27 28 28 29 29 29 29 30 30 30 30 30 30 30 30 31 31 31 31 31 31 32 32 32 32 32 32 31
24 25 26 26 26 27 28 29 30 30 31 32 33 33 34 34 34 34 35 34 35 34 35 35 35 35 35 35 35 35 35 36 36 36 36 36 35 35
27 28 29 29 30 31 31 32 33 34 34 36 37 37 38 38 38 39 39 39 39 40 39 39 39 39 39 40 40 40 40 39 39 39 39 39 39 38
29 30 31 31 33 34 34 35 36 37 38 39 40 41 42 42 43 43 43 43 43 44 44 44 44 44 44 44 44 44 44 44 43 43 43 43 42 42
31 32 33 34 35 36 37 38 39 40 41 41 42 43 44 45 45 46 46 46 46 47 47 47 48 48 48 48 48 48 48 48 48 47 47 46 46 46
33 34 35 36 37 38 39 40 41 43 44 45 45 45 46 47 49 49 50 50 50 50 50 50 51 51 52 52 52 51 52 52 52 52 51 51 50 50
36 37 38 39 40 40 41 43 45 45 46 48 49 50 51 52 52 53 54 54 53 53 54 53 53 54 54 54 54 54 54 55 55 54 54 54 53 52
39 40 41 42 44 45 46 47 48 49 50 51 52 52 54 55 55 55 56 56 55 55 56 55 55 56 56 56 56 55 56 57 57 57 57 56 56 55
41 43 44 45 46 48 49 50 51 52 52 52 53 54 55 56 56 57 57 57 57 57 58 59 59 59 58 57 58 58 58 58 59 59 59 59 60 60
43 45 46 47 48 49 50 51 52 53 54 55 56 57 57 58 58 59 59 60 60 60 60 61 60 61 60 60 60 61 61 61 62 62 62 63 63 64
45 46 47 48 49 51 52 53 54 55 56 57 58 59 60 60 61 62 62 63 63 63 63 64 64 64 65 64 63 64 64 64 65 65 65 65 66 67
47 48 50 51 53 54 55 56 57 58 59 60 61 61 62 63 64 65 65 65 65 65 65 67 67 67 67 67 67 66 66 67 67 67 68 68 69 69
49 51 53 55 56 57 58 60 61 62 62 63 63 64 65 65 66 66 66 67 67 68 69 69 69 69 70 69 68 68 67 67 68 68 68 68 68 68
53 55 57 58 59 61 62 63 63 63 64 64 65 65 65 66 66 66 67 68 67 67 67 68 68 68 68 68 67 67 67 66 65 65 64 64 63 64
56 58 59 60 61 62 62 63 63 63 63 63 63 63 63 63 63 63 63 63 62 62 62 62 63 64 64 64 63 62 61 61 61 60 60 59 58 59
58 59 59 60 60 60 60 60 60 59 59 59 59 59 58 58 57 57 57 56 55 55 55 55 55 56 55 54 54 53 53 53 53 52 52 52 52 53
57 58 58 58 57 56 56 55 55 55 54 53 53 52 52 51 51 50 50 49 49 48 48 48 48 47 46 44 44 46 46 45 46 46 47 48 48 48
55 55 54 53 51 51 50 49 48 47 46 46 46 45 45 45 44 44 43 43 43 42 42 42 42 42 41 40 38 39 41 41 41 42 42 43 44 44
51 49 48 47 46 45 43 42 41 41 41 40 40 40 40 39 39 38 38 38 37 37 37 36 36 36 36 35 34 34 35 36 37 37 38 39 39 39
46 45 44 43 42 40 39 38 38 38 37 37 37 37 36 35 35 35 34 33 33 32 31 31 32 32 32 31 30 30 30 31 31 32 33 34 34 34
42 41 40 39 38 37 36 36 35 35 35 34 34 34 33 33 32 31 29 29 28 28 28 27 27 28 28 28 28 27 27 27 27 27 28 29 29 28

GEFSNE_500_meanwind_102.txt.gz
Wind_Speed
17 17 17 17 17 17 17 18 18 18 18 18 18 19 20 20 21 21 21 22 22 22 22 22 23 23 23 23 23 23 23 23 23 23 23 23 23 23
19 20 20 20 21 21 21 22 22 23 23 23 23 23 24 25 25 25 26 26 27 27 27 27 27 27 27 27 27 27 27 26 27 27 27 27 27 26
21 22 23 24 24 24 24 25 25 26 27 28 28 28 28 29 29 30 30 30 30 31 31 32 32 32 31 31 31 31 31 31 31 31 31 31 31 31
23 24 25 26 26 27 27 27 28 28 29 30 31 32 32 33 33 34 34 34 34 34 35 35 36 36 36 36 36 36 36 36 36 36 36 36 36 35
25 25 26 27 28 28 29 29 30 31 32 32 34 35 35 36 36 37 37 37 37 38 39 39 39 40 40 40 41 41 41 41 41 41 41 41 40 40
26 27 27 28 29 30 30 32 33 34 35 35 36 37 39 39 39 39 40 41 41 42 42 42 42 43 43 43 44 44 45 45 45 45 45 45 44 44
27 27 28 29 30 31 32 33 35 36 37 38 39 39 40 41 42 43 43 44 45 46 46 46 46 46 46 46 46 47 48 48 48 48 49 48 48 47
28 28 29 30 32 33 34 36 37 38 40 41 42 43 44 45 46 47 48 48 48 49 51 51 52 51 50 50 50 50 50 50 51 50 50 50 51 50
30 31 32 33 34 36 38 38 40 42 43 44 45 46 47 48 49 50 51 51 51 52 54 53 54 55 55 54 54 54 54 54 54 53 53 53 53 52
32 34 35 36 38 38 40 41 42 43 44 46 47 48 50 51 52 53 53 54 54 55 57 57 56 56 56 56 56 57 57 57 57 57 56 56 56 56
34 36 37 38 39 40 41 43 44 45 47 48 49 51 52 53 54 56 56 57 58 58 60 61 61 61 60 59 59 60 60 60 59 59 59 59 59 59
37 38 40 41 42 43 45 46 47 49 50 51 53 54 55 57 58 60 61 62 62 63 63 64 65 65 64 63 63 63 62 62 62 61 61 61 61 61
39 40 41 42 44 45 47 48 50 52 53 54 56 57 59 61 62 63 64 65 66 66 66 67 67 67 68 66 64 64 64 64 64 63 63 62 63 63
41 42 44 45 46 48 50 52 53 55 57 59 60 62 63 64 65 66 66 66 66 66 67 67 67 67 67 66 64 63 63 64 63 63 63 63 63 63
43 45 47 48 50 51 53 55 57 58 60 61 62 63 64 65 65 64 64 63 63 64 64 63 63 63 63 63 62 61 60 59 60 61 61 61 61 62
46 48 49 51 53 55 56 57 58 59 60 60 61 61 61 61 60 60 59 59 59 58 58 59 59 59 58 58 58 56 55 55 55 56 56 57 57 58
49 50 52 54 55 56 57 58 59 59 60 59 59 59 58 58 57 56 55 54 53 53 52 52 53 53 53 53 51 51 51 51 50 50 50 49 49 50
51 52 54 55 56 57 57 57 58 57 57 56 56 55 54 53 52 51 50 49 49 49 49 48 48 48 47 46 47 46 46 45 44 44 44 44 43 44
53 54 55 55 55 55 55 54 54 53 53 52 51 50 49 48 47 46 45 45 45 44 44 44 43 42 41 39 40 43 42 40 39 39 39 39 38 38
53 53 53 53 52 51 51 50 50 49 48 47 46 46 45 44 43 42 41 41 40 40 40 40 40 39 38 36 33 34 37 36 36 35 35 35 34 34
51 51 51 50 49 48 47 47 46 45 44 43 42 42 41 40 40 39 38 38 37 37 36 36 35 35 34 32 31 30 31 32 33 32 32 32 31 31
48 47 46 46 45 44 44 44 43 42 41 40 39 38 38 37 37 36 35 35 35 34 34 32 32 31 31 30 28 27 27 29 30 30 30 29 28 27
44 44 43 43 42 42 41 40 39 38 38 37 37 37 36 35 34 34 33 33 33 32 30 29 29 29 28 27 26 25 25 25 25 25 26 27 26 25

GEFSNE_500_meanwind_108.txt.gz
Wind_Speed
17 17 16 16 16 16 16 16 16 17 17 17 17 17 17 18 18 19 20 20 21 21 21 21 22 22 22 23 24 24 24 24 24 24 25 25 25 25
19 19 19 20 19 19 19 19 19 20 20 20 20 21 21 21 22 23 24 24 24 25 25 26 26 27 27 28 28 28 29 29 29 29 29 29 30 29
21 21 21 22 22 22 22 22 22 22 23 23 23 23 24 24 25 25 26 26 27 28 28 29 29 30 31 31 32 32 33 33 34 34 34 34 34 34
23 23 23 24 24 24 24 24 24 25 25 26 26 26 26 27 27 28 29 29 30 31 32 32 33 34 34 35 36 36 36 37 38 38 39 39 40 40
24 24 24 24 24 24 25 26 26 27 27 28 29 29 30 30 30 31 32 33 34 35 36 36 37 38 39 39 40 40 41 42 43 43 44 44 45 45
24 24 25 25 26 26 26 27 27 28 29 30 31 32 33 34 34 35 36 36 38 39 39 40 40 41 43 44 44 45 46 47 47 48 48 48 48 49
25 26 26 27 27 28 28 29 30 30 31 32 33 35 36 38 38 39 40 40 41 42 43 43 44 45 46 47 48 49 50 50 51 51 52 52 52 52
26 27 27 28 29 30 31 32 33 34 35 36 37 38 39 41 42 43 44 45 45 46 47 47 49 49 50 51 52 53 53 54 54 55 56 56 55 56
27 28 30 31 31 32 33 34 35 36 38 39 40 42 43 44 45 46 47 48 49 49 51 51 52 53 54 55 56 57 57 58 59 59 60 60 60 59
30 31 32 33 34 35 36 37 38 39 40 41 43 44 45 45 47 48 49 51 52 53 54 54 55 56 58 59 61 62 62 63 64 64 65 65 65 65
32 33 34 35 36 37 38 39 40 42 43 44 45 46 47 48 50 51 52 54 55 57 59 60 60 61 61 63 64 65 66 67 67 68 68 68 68 68
34 34 36 37 38 39 41 42 43 45 46 48 49 50 51 52 53 55 56 58 59 60 62 63 65 66 65 65 65 66 67 67 68 68 69 69 69 69
36 37 38 39 41 42 43 44 46 47 49 50 51 52 54 55 57 59 60 62 63 64 65 66 66 66 67 66 65 64 65 65 65 66 66 67 68 67
38 39 40 41 42 44 46 47 49 50 51 52 54 55 57 59 60 62 63 64 65 65 66 66 66 65 65 64 63 62 61 61 61 61 62 62 62 62
39 40 42 43 44 46 47 49 50 51 53 55 56 58 59 60 62 62 63 64 64 64 64 64 64 63 63 61 60 59 58 58 57 57 57 57 58 58
41 42 43 45 46 48 49 51 52 54 55 56 58 59 60 61 61 62 62 61 61 61 61 60 60 58 57 57 56 56 56 55 54 54 54 54 54 55
42 43 45 47 48 50 52 53 54 56 57 57 58 58 59 59 59 59 58 58 56 55 55 55 54 53 52 52 51 51 51 50 50 49 48 48 49 50
44 46 47 49 51 52 53 54 55 56 56 57 57 57 57 56 56 56 55 53 53 52 51 50 49 48 47 48 48 46 45 44 43 43 43 42 41 43
46 48 49 51 52 53 54 54 55 55 55 55 55 54 54 54 53 52 51 50 49 49 47 46 45 44 42 41 41 42 41 39 38 38 38 37 36 36
48 50 51 51 52 53 53 53 54 53 53 52 52 51 51 50 49 48 47 46 45 43 42 42 41 40 39 37 36 37 38 35 33 33 33 32 32 32
49 49 50 50 51 51 51 51 51 50 50 49 49 48 47 46 45 44 43 41 40 39 38 37 37 37 36 34 33 32 33 32 31 30 29 28 28 28
47 47 48 48 48 48 48 47 47 46 46 45 45 44 43 42 41 39 38 37 36 35 34 34 34 33 33 31 30 29 28 28 29 29 27 26 25 25
45 45 45 45 45 44 43 43 43 42 42 42 41 40 39 38 37 36 35 34 33 33 32 31 31 31 30 29 28 27 26 26 26 26 27 26 25 24

GEFSNE_500_meanwind_114.txt.gz
Wind_Speed
19 19 19 18 19 19 18 18 19 19 19 19 19 20 20 21 21 22 22 22 23 23 24 24 24 25 25 26 26 27 28 28 29 29 29 29 29 30
21 21 21 21 21 22 22 22 22 22 23 23 23 23 23 24 24 25 25 26 26 27 27 27 28 29 29 30 30 31 32 32 33 33 33 33 33 34
23 23 23 23 24 24 25 25 25 25 26 26 26 27 27 27 27 28 28 28 29 29 30 31 32 33 33 33 34 35 36 36 36 37 37 38 38 38
25 25 25 25 26 26 26 27 28 28 29 29 29 29 30 30 30 30 31 32 33 33 34 35 36 36 37 38 38 39 40 40 41 41 42 42 42 43
25 26 26 26 27 27 28 28 29 29 30 30 30 31 31 32 33 34 34 35 36 37 37 38 39 39 40 41 42 43 44 44 45 45 46 46 47 47
24 25 26 27 27 28 29 30 30 31 31 32 32 33 33 34 35 36 37 38 39 40 40 41 42 43 44 45 46 47 48 48 49 49 50 50 50 51
25 25 26 27 29 29 30 31 32 33 34 34 35 36 36 37 37 39 40 41 42 42 43 45 46 47 48 49 50 51 51 52 52 53 53 54 54 55
26 27 28 29 30 31 32 33 33 35 36 37 38 39 40 40 41 42 43 44 45 46 48 49 50 51 52 53 54 54 55 56 56 56 57 58 59 59
27 28 30 31 31 32 33 35 36 38 38 39 40 41 43 44 45 46 46 48 49 50 51 53 54 55 55 57 58 58 59 60 61 62 62 63 64 64
28 29 30 32 33 34 35 37 38 39 40 42 43 44 46 47 48 49 50 52 53 54 54 55 55 57 58 60 62 63 64 65 66 67 67 68 68 68
30 31 32 34 35 37 39 40 41 42 44 45 47 48 50 50 52 53 54 55 56 57 57 58 59 60 61 63 65 66 67 67 68 69 70 70 71 71
32 33 35 37 39 41 42 43 44 46 46 48 50 51 52 53 54 55 56 57 59 60 61 62 63 64 64 65 66 67 68 68 69 70 70 71 71 71
34 35 37 38 40 42 43 45 47 48 49 51 52 53 55 56 57 59 60 61 62 63 64 65 66 66 67 67 66 67 68 68 69 69 69 69 69 69
36 38 39 41 42 44 45 47 49 50 51 53 55 56 58 60 61 63 64 65 66 67 67 67 68 68 68 68 67 67 67 67 66 65 64 64 64 64
38 40 41 43 45 47 49 50 51 52 54 55 57 59 60 62 63 65 65 66 67 67 68 68 68 68 68 67 67 66 64 62 61 60 59 59 59 58
40 41 43 46 47 49 50 51 52 54 56 57 59 60 61 63 64 64 65 66 66 67 67 67 67 66 65 64 63 62 60 58 56 55 54 54 54 53
42 43 45 47 48 50 51 52 54 55 57 58 59 61 62 63 64 64 65 64 64 64 63 63 62 62 61 60 58 57 55 53 52 50 49 48 48 49
42 45 46 47 49 50 51 53 55 56 57 58 59 60 61 61 61 62 62 61 60 60 59 58 56 55 55 54 54 51 50 48 47 45 44 43 42 43
43 45 46 47 48 50 51 53 54 55 56 56 57 57 57 57 57 57 56 55 55 54 53 53 51 49 48 46 46 46 45 43 41 40 39 39 37 37
42 43 45 46 47 48 50 51 52 52 52 52 52 52 52 52 52 51 51 50 50 49 48 47 45 44 42 41 39 40 40 38 37 35 35 34 33 33
41 42 43 44 46 46 47 48 48 48 48 49 49 48 48 47 47 46 45 44 44 43 42 41 40 39 38 37 36 35 35 34 33 32 30 30 29 30
39 41 42 43 43 44 44 44 44 45 45 45 45 44 43 42 41 40 40 39 39 38 37 37 36 35 35 34 32 31 30 30 30 29 29 27 27 26
38 39 40 40 40 41 41 41 41 41 41 40 40 39 39 38 37 37 36 35 35 34 33 32 32 32 31 31 29 28 27 26 26 26 27 27 26 25

GEFSNE_500_meanwind_120.txt.gz
Wind_Speed
20 20 20 20 20 20 20 21 21 21 21 21 22 22 23 23 23 23 24 24 25 25 26 27 27 27 27 27 28 28 28 29 29 30 30 30 30 31
21 22 22 22 22 22 23 23 24 24 24 25 25 25 26 27 27 27 28 28 28 29 30 30 31 31 31 31 31 32 32 33 33 34 34 34 35 35
23 23 23 23 24 24 25 26 27 27 27 28 29 29 29 30 30 31 31 32 32 32 32 33 33 33 34 34 35 35 36 36 37 37 38 38 39 39
23 23 24 25 26 26 27 27 28 29 29 29 30 31 31 32 32 33 34 34 35 35 35 36 37 37 37 37 38 38 39 40 41 41 42 42 43 43
23 24 25 26 27 28 29 29 28 29 30 31 32 33 33 34 35 36 36 37 37 38 38 39 39 40 40 41 41 42 43 43 44 44 45 46 46 47
25 26 27 28 29 29 29 30 30 30 31 32 33 34 36 37 38 38 39 40 40 41 41 42 43 44 44 45 46 46 47 47 48 48 49 50 50 51
26 27 28 29 29 30 31 31 31 32 32 34 35 36 37 38 39 41 41 42 43 43 45 46 47 48 49 49 50 51 52 52 53 53 54 54 54 55
26 28 29 29 30 32 32 33 33 33 34 36 37 38 38 39 41 43 44 45 46 46 47 49 50 51 52 52 53 54 55 56 57 57 57 58 58 59
26 27 28 29 29 32 33 33 34 35 36 37 38 39 41 42 44 45 46 48 49 50 50 51 52 54 55 56 56 57 58 59 59 60 61 61 62 62
27 28 28 29 30 31 33 34 35 36 37 39 41 43 44 45 46 47 48 50 51 52 53 54 56 57 59 60 60 60 61 61 62 63 63 64 64 64
28 28 29 30 31 33 34 34 35 36 38 40 42 44 46 47 48 50 51 53 54 55 55 56 58 59 60 61 62 62 63 64 65 66 66 67 67 67
29 29 30 31 32 34 35 36 37 39 41 43 45 47 48 50 51 52 53 55 56 57 58 59 60 61 61 62 64 65 66 67 68 68 69 69 69 69
31 32 33 34 35 36 38 39 40 42 44 46 47 49 50 52 53 54 56 57 58 59 61 62 62 63 64 64 65 66 67 68 68 69 69 69 68 69
33 34 36 37 38 40 41 42 43 45 47 48 50 51 52 54 55 56 57 59 60 61 62 63 63 64 64 65 65 66 66 67 66 66 65 65 64 64
35 37 38 39 41 43 43 44 45 47 48 49 51 52 53 55 57 58 59 60 61 61 62 62 63 64 64 64 64 64 64 63 62 61 60 59 59 59
36 37 39 40 41 43 44 45 46 47 48 49 51 53 54 55 56 57 58 59 59 60 61 61 61 61 61 60 60 59 59 58 56 55 54 53 54 54
37 38 39 40 41 42 43 44 45 46 47 49 50 51 52 53 54 56 56 57 57 57 57 56 55 55 55 55 54 54 53 51 50 49 48 47 47 47
35 36 37 38 39 40 41 42 43 44 45 46 47 48 50 51 51 52 52 51 51 51 51 50 50 49 49 50 49 48 47 46 45 43 42 41 41 40
33 34 35 36 37 39 39 40 41 42 43 43 44 45 46 47 47 47 47 47 46 46 46 46 45 45 44 44 44 44 42 40 39 38 37 36 36 35
32 33 35 35 36 37 37 38 39 40 41 42 42 43 43 43 43 43 43 43 42 42 42 42 41 41 40 39 38 38 37 36 34 33 33 32 32 31
31 32 33 33 34 35 36 36 37 38 39 39 40 40 40 40 39 40 40 40 39 39 38 38 37 36 35 35 33 33 32 32 31 30 29 28 27 27
30 31 31 32 33 33 34 34 35 35 36 37 37 37 37 37 37 37 37 36 36 35 34 34 33 32 31 30 29 28 28 27 26 26 25 25 23 22
29 30 30 30 30 31 31 32 32 33 34 34 35 35 35 35 35 34 34 33 33 32 32 31 30 29 28 27 26 25 24 24 23 23 23 22 21 19

GEFSNE_500_meanwind_126.txt.gz
Wind_Speed
20 20 20 20 20 20 20 20 20 20 20 20 21 22 22 22 23 24 24 25 25 26 26 27 27 28 28 29 29 29 29 30 30 30 31 31 31 31
20 21 22 22 21 22 22 22 23 23 23 23 24 24 25 25 25 26 27 27 28 28 28 29 30 31 31 31 32 32 32 33 33 34 34 34 35 35
21 20 21 21 22 23 23 24 24 25 25 26 27 27 27 28 29 29 29 30 31 31 32 32 33 34 34 34 35 35 36 36 37 37 38 38 38 39
21 22 22 22 23 24 25 26 27 27 27 27 28 29 29 30 31 32 32 33 34 34 35 35 35 36 36 37 38 38 39 40 41 41 41 42 42 42
22 23 23 24 24 25 26 27 28 29 29 29 29 30 31 32 33 34 34 35 35 36 36 37 38 38 39 39 40 41 42 43 44 44 45 46 46 47
23 24 25 25 26 26 27 27 28 29 30 31 31 32 32 34 35 36 36 36 37 37 38 39 40 41 41 42 43 44 45 46 47 48 49 50 50 51
23 24 26 27 28 28 29 29 29 31 31 33 34 34 35 36 36 37 37 37 39 39 40 41 42 43 44 45 46 47 48 48 49 50 52 53 53 54
24 25 26 28 28 29 30 30 31 32 33 34 35 36 37 37 38 38 39 40 41 42 43 44 45 46 47 48 49 49 50 51 52 53 54 55 56 57
25 27 28 28 29 29 30 30 31 32 33 34 36 36 37 38 39 40 41 43 44 45 47 48 49 49 50 52 53 53 54 54 55 56 57 58 59 59
27 28 29 29 30 31 32 32 32 32 33 35 36 37 38 39 40 42 44 45 47 48 49 50 50 51 53 55 56 56 57 57 58 59 60 60 61 61
27 28 29 29 30 30 31 31 32 33 35 36 38 39 40 41 42 44 45 46 47 48 50 51 52 52 54 56 57 58 59 60 60 61 61 62 62 63
28 28 30 31 31 31 31 32 33 34 36 37 39 40 41 42 43 45 47 48 49 50 51 52 53 54 55 56 58 60 61 61 62 62 62 62 63 64
28 28 30 31 32 32 33 33 35 36 37 39 40 41 41 43 44 45 46 48 49 51 52 54 55 56 58 58 58 60 61 61 62 62 62 62 62 63
29 30 30 31 32 33 35 36 38 38 39 40 41 43 43 44 45 46 47 48 49 51 52 54 55 56 57 57 58 58 59 59 60 60 61 60 60 59
30 31 31 32 33 34 35 36 37 38 39 40 41 42 43 44 45 46 47 48 49 50 51 52 52 53 53 54 55 55 55 56 57 57 57 57 56 56
30 31 31 32 33 34 34 35 37 38 39 40 40 41 42 43 43 44 45 46 47 47 48 48 48 49 50 50 51 51 51 51 51 50 50 49 49 49
30 31 31 31 31 32 34 35 36 37 37 38 39 40 40 41 42 43 43 43 44 45 45 45 45 46 47 47 47 46 46 46 45 45 44 43 43 42
29 29 30 30 31 32 33 34 34 35 35 36 37 38 38 39 39 39 40 41 42 42 42 42 42 42 43 43 43 42 41 41 40 40 39 38 37 37
29 29 30 30 30 31 32 32 32 33 34 34 35 35 36 36 37 38 39 39 40 40 40 40 40 40 39 39 38 38 37 37 36 35 34 33 32 32
28 28 28 29 29 30 31 31 32 32 33 33 33 34 35 35 36 36 37 37 37 38 38 38 37 37 36 35 34 34 34 33 32 31 30 28 28 27
26 26 27 28 28 29 29 30 31 31 31 32 32 32 33 33 34 35 35 35 35 35 35 35 34 34 33 33 32 31 31 31 30 28 27 25 24 23
26 26 27 27 28 29 29 30 30 30 30 30 31 31 32 32 33 33 33 33 33 34 33 33 32 32 31 31 31 30 29 29 28 26 25 24 22 21
26 26 27 27 28 28 29 29 29 28 28 29 29 30 30 30 31 31 32 32 32 32 32 32 31 31 31 30 30 29 28 27 26 25 23 23 22 21

GEFSNE_500_meanwind_132.txt.gz
Wind_Speed
17 17 17 18 17 17 18 18 18 19 19 20 20 21 21 21 22 23 23 24 24 24 25 26 27 28 28 29 29 30 31 32 33 33 33 34 34 34
18 19 19 19 20 20 19 20 20 20 21 22 23 23 23 24 24 25 26 26 26 27 28 29 30 31 31 31 32 33 34 35 35 36 36 37 37 38
20 20 20 21 21 21 21 21 21 22 22 23 24 24 25 25 26 27 28 29 29 30 31 32 32 33 33 34 35 36 37 37 38 39 39 40 41 41
20 21 20 21 21 22 21 21 21 22 23 24 25 26 26 27 28 29 30 31 31 32 33 34 35 36 36 37 38 39 40 40 41 42 43 44 44 45
19 20 21 22 21 22 21 22 23 24 25 26 27 28 28 29 30 31 32 33 34 35 36 37 38 38 39 40 41 41 42 43 44 45 46 47 47 48
19 20 22 22 22 22 23 24 25 26 27 28 28 29 30 31 32 33 34 35 36 37 37 38 39 40 42 43 43 44 45 46 46 47 48 49 50 51
21 21 21 22 22 23 24 25 27 28 28 29 30 30 32 33 33 35 35 36 37 38 39 40 42 43 45 46 47 47 49 49 50 51 51 52 53 54
21 22 23 24 24 25 26 27 28 29 30 31 31 32 33 34 35 36 37 38 39 40 42 44 46 47 48 49 50 51 52 53 53 54 55 57 57 58
21 22 24 25 26 27 27 28 29 29 30 32 32 33 34 35 36 37 38 39 41 42 44 45 47 48 49 50 51 52 53 54 55 56 58 59 60 61
22 24 24 25 26 27 27 28 29 30 30 31 32 33 35 36 37 38 39 40 42 43 45 46 47 49 50 52 53 54 55 55 56 57 58 59 60 61
23 24 25 26 27 28 28 28 30 30 30 31 32 33 34 36 38 39 40 41 42 43 45 46 47 48 49 51 52 54 55 56 57 58 59 59 60 60
24 24 25 26 26 27 28 29 30 31 31 31 32 34 36 36 37 39 40 41 42 44 45 46 47 48 48 50 52 54 55 57 58 59 59 60 60 60
24 24 25 26 27 27 29 30 30 30 31 32 33 34 35 36 37 38 40 41 42 43 44 44 45 46 47 48 50 51 53 54 55 56 56 56 57 57
25 26 27 27 28 28 29 29 29 30 31 32 33 34 35 36 37 38 39 40 41 41 42 43 44 45 46 46 47 48 49 50 50 50 50 51 51 52
25 26 27 27 28 29 28 28 30 30 31 32 33 34 35 36 38 38 39 39 39 40 41 41 42 43 43 43 44 44 44 45 45 45 45 46 46 47
25 25 25 26 28 28 28 29 29 30 31 32 33 34 35 36 36 36 36 37 37 38 39 40 40 40 40 41 41 42 42 41 41 41 42 42 42 42
25 25 26 27 28 28 28 28 29 30 31 32 33 34 34 34 34 33 34 34 35 36 37 37 38 38 39 39 39 39 39 38 38 38 39 39 39 39
25 26 27 27 27 27 28 29 30 31 31 32 32 32 31 31 31 32 33 33 33 34 35 35 36 37 38 37 37 37 37 37 37 37 37 36 36 35
24 25 26 26 27 27 28 29 30 30 30 30 30 30 30 30 31 31 32 32 32 33 34 34 35 35 35 35 35 35 35 34 34 34 34 34 33 31
25 25 26 26 26 27 28 29 29 29 29 29 29 29 30 30 30 31 30 31 31 32 32 33 34 34 33 33 33 33 33 33 32 32 31 31 30 29
26 26 26 26 26 27 28 28 28 28 28 28 28 29 29 29 29 29 29 30 30 31 31 32 33 33 33 33 32 32 32 32 32 31 29 28 27 26
26 26 26 26 27 27 27 27 28 28 28 28 28 28 28 28 28 28 29 29 30 30 31 31 32 32 32 31 31 30 30 31 31 31 30 29 27 26
25 25 26 27 27 27 27 28 28 28 28 28 28 28 28 27 28 28 28 28 29 29 29 30 30 31 30 30 30 30 30 29 29 29 29 29 28 27

GEFSNE_500_meanwind_138.txt.gz
Wind_Speed
18 19 19 19 20 20 20 20 20 20 21 21 21 22 23 23 24 25 25 25 26 26 27 28 29 29 30 31 32 33 33 34 35 35 36 36 36 37
19 20 20 20 21 21 21 22 22 23 23 23 23 23 24 25 26 26 27 27 28 28 29 30 31 32 33 33 34 34 35 36 37 38 39 40 40 41
20 21 21 22 22 22 22 22 23 23 24 24 25 25 25 26 28 29 29 29 30 31 32 33 33 34 35 35 36 37 37 39 40 41 42 42 43 44
20 21 22 22 23 23 23 24 25 25 25 26 26 26 27 28 29 30 30 31 32 33 34 35 36 38 38 38 39 40 41 42 43 43 44 45 46 47
20 21 22 23 23 23 24 24 25 26 26 27 27 28 28 29 29 30 31 32 33 35 36 37 39 40 41 42 43 43 43 44 45 46 47 48 49 49
20 21 22 23 23 24 25 25 26 26 27 27 27 28 28 29 30 32 33 35 36 37 38 39 40 41 42 43 44 45 45 46 47 48 49 50 51 52
22 22 23 24 24 25 25 26 27 27 27 27 27 28 29 31 33 34 35 37 38 39 40 41 41 42 44 45 45 46 47 48 49 50 51 52 53 54
22 23 23 24 25 25 26 27 27 28 27 28 30 31 32 32 33 35 36 37 38 39 40 41 42 43 44 45 46 46 47 48 49 50 52 53 54 55
23 24 24 24 25 26 26 28 28 28 29 30 31 32 33 34 34 35 36 37 38 40 41 42 43 44 44 45 45 45 47 48 49 50 51 52 53 54
23 24 24 25 25 26 27 28 28 28 29 30 31 33 33 34 34 35 36 37 38 39 40 41 42 42 43 44 45 46 47 47 48 49 50 50 51 52
23 24 25 25 25 26 26 27 28 29 30 31 32 33 33 33 33 34 35 36 37 38 39 40 41 42 43 44 45 46 47 47 47 47 48 49 49 49
24 25 26 26 27 26 27 28 28 29 30 31 32 32 32 32 33 34 35 36 38 38 39 40 41 42 43 44 45 46 45 45 45 46 46 47 47 47
25 25 26 26 27 27 28 28 28 29 30 31 32 32 32 33 34 35 36 37 38 39 40 40 41 41 42 43 43 43 43 43 44 44 44 45 45 45
26 26 26 27 27 27 28 29 29 30 30 31 32 32 33 34 34 35 36 37 38 38 39 39 39 39 40 39 40 40 41 42 42 43 43 43 43 43
27 27 27 27 27 27 28 28 29 29 30 31 32 33 33 34 35 36 36 37 37 38 38 38 37 38 38 39 39 38 39 40 41 41 41 41 41 41
26 26 26 26 27 28 28 28 29 30 31 32 33 33 34 35 35 36 36 36 36 37 36 36 36 36 36 37 37 37 37 38 39 39 39 39 39 39
25 26 27 27 27 28 29 29 30 31 32 32 33 34 35 35 35 35 35 36 35 35 35 34 34 34 34 35 35 36 36 37 37 37 37 37 38 38
26 26 27 27 28 29 30 31 32 32 32 33 33 34 34 34 34 35 34 34 33 33 32 32 32 33 33 34 34 34 35 35 36 36 36 36 36 36
27 27 28 29 29 30 30 31 32 32 32 32 33 33 33 33 32 32 32 32 31 31 31 31 31 32 32 33 33 34 34 34 34 34 35 35 34 34
27 28 28 29 29 30 30 30 31 32 32 32 32 32 31 31 31 31 31 30 30 30 30 30 31 31 31 32 32 33 33 33 33 33 33 33 33 32
27 28 29 29 29 30 30 31 31 31 31 31 31 30 30 30 30 30 30 29 29 29 29 30 30 31 31 31 31 32 32 33 33 33 32 31 30 30
29 29 29 30 30 30 30 30 30 30 31 30 30 30 30 30 29 29 28 28 28 29 29 29 29 30 30 30 30 30 31 31 32 33 33 32 31 30
29 29 29 29 29 30 30 30 30 30 30 30 29 29 29 29 29 28 28 28 28 28 28 28 28 28 28 29 29 30 30 30 30 31 32 32 32 32

GEFSNE_500_meanwind_144.txt.gz
Wind_Speed
18 19 20 20 20 20 20 21 21 22 22 21 22 22 22 22 23 24 24 24 25 25 25 26 27 28 28 29 30 31 32 33 33 34 34 35 35 36
19 19 20 21 22 22 23 23 23 24 24 23 23 24 23 24 25 26 26 26 26 27 27 28 29 30 31 32 33 34 35 35 35 36 37 38 39 39
20 20 21 21 23 24 24 24 25 25 25 25 25 24 24 26 26 27 27 28 28 28 28 28 29 30 32 34 35 36 37 38 39 39 40 40 41 41
21 21 22 22 22 23 23 24 25 26 26 26 25 25 26 26 27 28 29 28 29 29 30 31 32 33 34 35 36 37 38 39 40 42 42 42 42 43
21 22 22 23 23 23 23 24 25 25 26 25 26 27 27 27 29 29 30 29 29 30 31 33 34 35 36 37 38 38 40 40 41 41 42 42 43 44
20 22 22 23 23 23 24 24 24 25 25 26 27 28 29 29 30 30 29 30 30 31 32 34 35 36 38 39 39 39 39 40 40 41 41 42 43 44
21 22 23 23 22 23 24 24 25 25 26 27 28 29 30 30 30 30 31 31 32 33 34 35 36 38 38 39 39 38 39 40 41 42 43 43 44 44
22 22 22 22 23 24 24 25 25 26 27 28 28 28 29 30 30 31 31 32 33 34 35 36 37 38 38 39 38 39 39 40 41 42 43 43 44 44
21 22 22 23 24 24 24 25 26 27 28 28 28 29 30 30 31 31 32 33 33 34 35 35 37 38 38 38 39 39 40 41 42 43 43 43 43 44
22 23 23 24 24 24 24 25 26 27 28 28 29 30 30 30 30 31 31 32 32 33 35 36 37 38 39 39 39 40 41 42 42 42 42 43 43 43
23 24 24 25 24 25 25 25 26 26 27 28 29 29 29 30 30 30 32 32 33 34 35 36 36 37 39 39 40 40 41 41 41 41 41 41 41 41
23 24 24 24 24 25 26 26 27 27 28 28 29 28 28 29 30 32 32 33 34 35 36 38 39 39 39 39 39 40 40 40 39 40 40 40 39 40
25 25 25 25 26 27 27 27 27 27 28 28 28 28 29 30 31 32 33 33 34 36 36 37 38 38 38 38 38 38 38 38 38 38 38 37 38 38
26 26 26 26 27 27 27 27 27 28 28 28 29 29 29 30 31 32 33 34 35 35 36 36 36 36 37 37 37 37 37 37 36 36 36 37 36 37
26 26 26 26 27 27 27 27 27 28 28 29 29 29 30 31 32 33 33 34 34 34 35 34 35 35 36 36 35 35 35 35 35 35 35 35 36 36
26 27 27 27 27 26 26 26 27 28 29 29 29 30 30 31 32 33 33 34 34 34 34 34 34 34 33 33 33 33 33 33 34 34 34 34 34 34
28 28 28 27 26 26 26 27 28 30 30 30 31 31 32 32 33 33 33 33 33 33 33 32 32 32 32 31 31 31 32 32 32 32 32 33 33 34
28 28 27 27 27 27 27 28 29 30 30 31 32 32 32 32 32 32 32 32 32 32 31 31 30 30 30 29 30 30 30 31 31 31 31 31 32 32
29 29 29 28 28 28 28 29 29 30 31 31 32 32 32 32 31 31 31 30 30 29 29 29 28 29 29 29 29 29 30 29 29 29 29 29 30 31
29 29 29 28 28 28 29 30 30 31 31 31 31 31 31 31 31 30 29 29 28 28 28 28 28 28 28 28 28 28 28 28 28 28 28 28 29 30
29 29 28 28 28 29 30 30 31 31 31 31 31 31 30 30 29 29 29 28 28 28 28 27 27 27 27 27 27 27 27 27 27 26 27 27 28 29
28 28 27 27 29 29 29 30 30 30 30 30 31 30 29 29 29 28 28 28 28 27 27 27 27 26 26 26 26 26 26 27 26 26 26 27 28 28
28 28 28 28 29 29 29 29 29 29 30 30 29 29 29 29 28 27 27 27 27 27 27 26 26 26 26 25 25 26 26 26 26 26 26 27 28 28

GEFSNE_500_meanwind_150.txt.gz
Wind_Speed
18 18 19 19 19 19 19 19 20 20 21 21 21 21 22 23 22 22 22 22 22 23 23 23 24 25 26 27 27 27 28 29 30 31 31 31 32 33
18 18 18 19 20 20 21 21 21 22 22 23 23 23 24 24 24 24 23 23 23 24 25 25 26 27 28 28 28 29 30 30 31 31 32 33 34 35
17 17 18 19 20 20 21 21 23 24 23 24 24 25 25 25 26 26 25 24 25 25 26 26 27 27 28 29 30 30 32 32 32 33 34 34 35 36
17 18 19 20 20 21 22 23 24 25 25 25 26 25 25 25 26 27 26 27 27 27 27 27 28 28 29 30 31 31 32 33 34 35 35 36 37 38
17 18 19 20 20 21 22 23 24 24 24 25 26 26 26 26 27 27 27 28 29 29 29 29 30 30 30 30 31 32 34 35 35 36 36 37 38 38
18 19 19 20 21 22 23 24 25 24 25 25 26 26 26 27 28 28 28 29 30 30 30 30 31 31 31 32 32 33 35 36 37 38 38 39 38 38
19 20 20 21 22 23 23 24 25 25 25 25 26 27 27 27 28 28 29 30 31 31 31 31 32 32 32 32 33 34 35 37 38 39 39 39 39 40
19 20 21 21 22 23 23 24 24 25 25 26 27 27 27 27 29 29 30 30 31 31 31 31 31 32 33 34 35 35 36 38 38 39 40 40 41 42
20 20 20 21 21 22 23 23 24 25 25 26 26 27 27 28 30 30 30 30 30 30 31 32 32 34 35 35 36 37 38 39 39 40 41 42 42 41
20 20 20 21 22 22 22 23 23 25 26 27 26 27 28 29 29 29 29 30 30 32 33 34 34 35 35 36 37 38 40 41 41 42 42 42 42 42
21 22 23 23 23 23 24 24 25 26 26 27 27 27 28 28 28 28 29 30 32 33 34 34 35 35 37 37 38 38 39 40 40 41 42 42 41 40
23 24 24 24 25 25 25 25 25 26 27 28 28 28 28 27 28 29 30 31 32 33 33 34 36 37 37 37 37 38 39 39 39 39 39 39 38 38
24 25 25 25 25 26 26 27 27 28 28 28 28 27 27 27 29 30 30 31 32 33 34 36 36 36 37 38 38 38 38 38 37 37 37 37 37 37
25 25 26 26 27 27 27 27 27 28 27 28 27 27 28 29 30 31 32 32 33 34 35 36 36 36 37 38 38 38 38 37 36 36 36 35 35 35
27 27 27 27 28 29 29 28 28 28 28 28 28 28 29 30 32 32 33 33 34 34 35 35 35 36 36 36 35 35 35 35 34 34 33 33 33 33
28 28 29 29 29 29 29 29 29 29 29 29 29 30 30 31 32 33 33 33 34 34 34 34 34 34 33 33 33 33 32 32 31 31 31 31 31 31
29 29 29 29 29 30 29 30 30 30 30 30 30 31 31 32 33 33 33 33 33 33 33 33 32 32 31 31 31 30 30 30 30 29 29 29 29 29
30 30 29 30 30 30 30 30 30 31 32 32 32 32 32 33 32 33 33 33 32 32 32 31 31 30 29 29 29 29 29 29 28 28 27 27 27 27
30 30 30 30 30 31 31 31 31 32 32 32 32 32 32 32 33 33 33 32 32 31 30 30 29 29 28 29 28 28 28 27 27 27 26 26 26 26
30 30 31 31 30 31 31 31 31 31 31 31 31 31 31 32 32 32 32 31 30 30 29 28 28 28 28 28 28 27 27 26 26 26 26 25 25 25
31 31 31 31 31 31 31 31 31 31 32 31 31 31 31 31 31 31 30 30 29 28 28 27 27 27 27 27 26 26 25 25 26 26 25 25 25 25
31 31 31 31 32 31 31 31 31 32 32 32 31 31 30 30 30 30 29 29 28 28 28 27 27 27 27 26 26 25 25 25 25 25 25 25 25 25
31 31 31 32 32 31 31 32 32 32 32 31 30 30 30 30 30 30 29 29 29 28 28 27 27 27 26 26 25 25 24 24 24 24 25 25 26 26

GEFSNE_500_meanwind_156.txt.gz
Wind_Speed
17 17 17 17 17 17 17 18 18 18 18 19 19 20 20 20 21 21 22 22 22 23 23 23 24 24 25 25 26 27 28 29 29 29 30 31 31 31
15 16 16 16 16 17 17 17 17 18 19 20 21 22 22 22 22 21 22 23 23 24 24 25 26 26 26 26 27 28 29 30 30 31 31 32 32 32
14 15 16 16 16 16 17 17 18 19 19 20 22 22 23 23 23 22 23 24 24 25 26 27 27 27 27 27 28 29 30 31 31 32 32 33 33 34
14 14 15 16 16 17 17 18 18 20 21 22 23 23 23 24 24 24 25 26 26 26 27 28 28 29 29 29 29 30 31 32 33 33 34 34 35 35
14 15 15 16 16 17 17 18 19 20 21 22 23 24 24 25 25 26 26 26 26 27 28 28 29 30 31 31 31 32 32 33 33 34 34 35 36 37
14 14 15 16 17 18 18 19 19 20 21 22 23 23 25 26 25 26 26 26 26 28 28 29 30 30 30 31 31 32 33 33 34 35 36 37 38 39
14 15 15 16 17 18 19 19 20 21 22 23 23 24 25 26 26 26 26 26 27 28 28 30 29 29 30 30 31 32 34 35 36 37 38 38 39 40
14 14 15 16 17 18 20 20 21 22 23 23 24 24 25 25 26 26 27 27 28 29 30 30 30 31 31 31 32 34 35 36 37 38 38 40 41 41
15 15 16 17 17 19 20 21 22 22 23 23 23 24 25 25 26 27 27 28 28 29 30 30 31 31 32 33 34 35 36 37 38 39 39 40 41 41
17 17 18 18 19 20 21 21 21 22 22 22 23 24 24 25 26 27 28 28 29 30 31 31 31 32 33 34 35 36 36 37 38 38 39 40 40 40
19 19 19 20 21 21 21 21 22 23 23 24 24 25 26 27 27 28 28 29 29 30 30 32 33 33 34 35 35 36 37 37 38 38 39 40 40 39
20 21 21 21 22 22 22 23 23 24 24 25 26 26 27 27 28 28 29 29 29 30 31 32 33 34 34 35 36 36 37 37 38 38 38 39 39 39
21 21 22 22 23 23 23 24 24 25 25 26 27 27 27 27 28 28 29 30 30 31 32 32 33 34 34 35 35 35 36 36 37 37 37 37 37 37
23 23 23 24 24 24 24 25 25 26 26 27 27 27 28 28 28 29 30 31 31 32 32 33 34 34 33 34 34 35 35 35 35 35 35 34 33 33
24 24 24 25 25 25 26 26 26 27 27 28 28 28 29 29 30 31 31 32 32 33 33 34 34 33 33 34 34 34 34 34 33 33 32 31 31 31
26 26 26 26 26 27 27 27 27 28 28 29 29 29 30 30 31 31 32 32 33 33 33 33 33 33 33 34 34 33 33 32 31 30 29 29 29 28
27 27 27 28 28 28 28 28 28 28 29 29 30 31 31 31 31 32 32 32 33 33 33 32 32 32 32 32 32 32 31 30 30 29 29 28 27 27
28 28 29 29 29 29 29 29 29 30 30 30 30 31 31 31 31 32 32 32 32 32 32 31 31 30 30 29 29 29 29 28 28 28 28 27 26 26
29 29 29 29 29 30 30 30 31 30 30 31 31 31 31 31 31 31 32 32 32 31 31 31 30 30 30 29 29 28 28 28 27 27 27 26 25 25
30 30 30 30 30 30 30 30 31 31 31 31 31 31 31 31 31 31 32 31 31 31 31 30 29 29 28 28 28 27 28 27 27 26 26 25 24 24
30 30 30 30 30 30 31 31 31 31 32 32 32 32 31 31 31 31 31 30 30 30 30 30 29 28 27 27 27 27 27 27 26 26 25 24 24 24
31 31 31 31 31 31 31 31 32 32 32 32 31 31 31 31 31 31 30 30 29 29 29 29 28 27 27 27 27 27 27 26 26 25 25 25 24 24
32 32 32 31 32 32 32 32 33 32 32 31 31 31 31 30 30 30 30 29 29 29 29 28 28 27 27 26 26 26 26 25 25 25 25 25 25 25

GEFSNE_500_meanwind_162.txt.gz
Wind_Speed
16 16 17 18 18 18 19 19 19 19 19 20 21 21 21 21 22 22 22 22 22 22 23 24 24 25 25 26 28 29 30 30 30 30 30 30 30 31
15 16 16 17 17 17 17 17 18 19 20 21 21 22 23 23 23 23 22 22 23 24 25 26 27 27 28 28 29 29 29 30 31 31 31 31 32 32
16 16 16 16 17 17 18 18 18 19 19 20 21 22 22 23 23 23 24 25 25 26 27 27 28 29 30 29 29 29 30 31 31 32 33 33 34 34
15 15 16 17 17 18 18 18 19 19 19 19 20 21 22 23 23 24 26 26 27 27 27 28 29 29 30 30 30 30 31 32 32 33 34 35 35 36
15 15 16 17 18 18 18 18 19 19 20 20 21 22 22 23 25 25 26 26 27 27 27 28 29 29 30 30 30 30 31 31 32 33 34 35 35 36
15 16 16 16 16 17 17 18 19 20 21 21 22 22 23 24 25 26 26 27 27 27 28 28 28 29 30 31 31 31 32 32 32 33 34 34 35 36
16 17 17 17 17 17 18 19 20 21 21 22 22 23 24 26 26 27 28 28 28 28 29 29 29 29 30 31 31 32 33 33 34 34 35 36 37 37
18 18 18 18 18 19 19 20 21 21 22 23 23 24 25 26 28 28 29 29 28 28 29 28 29 30 31 31 32 32 33 33 33 34 35 36 37 38
19 19 19 19 20 20 21 21 22 22 23 24 25 25 26 27 28 28 28 28 28 29 30 30 30 31 32 32 32 33 33 33 34 35 36 36 36 37
19 20 20 20 21 22 22 23 24 24 24 25 25 26 27 28 28 28 27 28 29 30 31 31 31 32 33 33 33 34 34 34 35 35 35 36 37 38
20 20 21 21 22 23 23 24 24 25 26 26 27 27 28 28 28 28 29 30 31 31 31 32 32 33 33 33 33 34 34 34 35 35 35 36 36 37
21 21 22 23 23 24 24 25 25 26 27 28 28 29 29 29 29 30 31 31 31 32 32 33 33 33 33 33 33 34 34 34 35 35 36 36 35 36
22 23 24 24 24 25 26 26 26 27 28 28 29 30 30 31 31 31 32 32 33 33 33 33 33 33 33 34 34 34 33 33 34 34 35 35 34 34
24 25 26 26 27 27 28 28 28 28 29 29 30 31 31 31 32 32 32 33 33 33 34 33 33 33 34 34 34 33 33 33 33 34 34 33 33 33
27 27 27 28 29 30 30 30 30 31 31 31 31 32 32 33 33 33 33 33 33 33 33 33 33 33 33 33 33 33 33 33 33 32 32 32 31 31
29 29 30 30 31 31 31 31 31 32 32 32 33 33 33 33 33 33 33 33 34 33 33 33 33 33 33 32 32 33 33 32 32 31 31 31 30 29
31 31 31 31 31 32 32 32 32 32 32 33 33 34 34 34 34 34 33 33 33 33 33 33 33 33 33 32 33 32 32 31 31 30 29 29 29 28
31 32 32 32 32 32 32 33 33 33 34 34 34 34 33 33 33 33 33 33 33 34 34 33 33 33 32 32 32 31 31 31 30 29 28 28 27 27
32 32 32 32 32 32 32 33 33 34 34 35 34 34 34 34 33 33 34 34 34 34 34 34 33 33 32 32 31 31 31 30 29 28 27 27 28 27
33 33 32 33 33 33 33 33 34 35 35 35 35 34 35 35 35 35 34 34 34 34 34 33 33 32 32 31 31 31 30 29 28 27 27 26 26 26
34 34 34 34 34 34 34 35 35 35 35 35 35 35 35 35 35 35 35 34 34 33 33 33 32 32 32 31 30 29 29 28 27 27 27 26 26 26
35 35 35 35 35 35 35 35 35 34 34 35 35 35 35 35 35 35 35 34 33 33 33 32 31 31 30 30 29 29 28 28 27 26 26 26 26 26
36 36 36 36 35 35 35 35 35 34 34 35 35 35 35 35 35 34 34 34 33 33 32 32 31 31 31 30 29 28 28 28 27 26 26 27 26 26

GEFSNE_500_meanwind_168.txt.gz
Wind_Speed
13 13 14 15 16 17 17 18 17 17 18 18 18 19 20 20 20 21 21 21 21 22 21 22 23 23 24 25 26 27 28 29 29 29 29 29 29 30
14 15 15 16 16 17 17 17 17 17 18 19 20 20 20 21 21 20 21 21 22 23 24 24 24 25 25 25 26 27 28 29 30 29 29 30 30 31
14 15 16 16 17 16 17 17 17 17 17 19 20 20 21 21 21 22 22 22 23 24 24 24 25 25 26 27 27 28 29 30 30 30 30 31 31 32
14 14 15 15 15 16 16 17 17 18 18 18 19 20 21 21 21 23 23 23 24 24 25 25 25 26 27 28 28 28 29 29 29 30 30 31 32 32
15 15 16 16 16 16 16 17 18 18 18 18 20 20 21 21 21 22 23 24 24 25 25 25 26 26 28 28 28 28 28 28 29 30 31 31 31 32
15 16 16 16 17 17 17 17 18 18 19 20 20 20 21 22 22 23 24 24 25 26 27 27 28 28 29 29 29 28 28 28 29 30 30 31 32 33
16 17 17 17 18 18 19 19 19 20 20 20 21 21 22 22 23 24 25 25 26 27 27 28 29 29 29 29 29 29 29 30 31 31 31 32 33 33
17 18 18 19 19 20 20 20 21 21 21 21 21 22 23 24 25 25 25 26 27 28 28 28 29 29 29 30 30 30 31 31 32 32 32 32 33 34
18 18 19 19 20 21 21 22 22 22 22 22 22 23 24 25 26 26 27 27 28 28 29 29 29 30 30 30 30 31 31 31 31 32 32 33 34 34
19 20 20 20 21 21 21 22 22 22 23 23 24 25 25 26 27 28 28 29 29 29 30 30 30 31 31 32 32 32 31 31 32 32 32 32 33 33
20 21 21 21 22 23 23 23 23 24 25 25 26 26 27 27 28 29 29 29 30 30 30 31 31 32 32 32 32 31 31 31 31 31 31 31 32 32
22 22 23 24 24 24 24 25 25 26 27 27 28 28 28 29 29 29 30 30 30 30 31 32 32 33 33 32 32 31 31 31 31 31 30 30 31 31
24 24 25 25 26 26 27 27 28 28 29 29 30 30 31 30 30 30 31 31 31 31 31 32 33 33 33 32 32 31 31 30 31 31 31 31 31 31
26 27 27 27 28 28 29 30 30 30 30 31 31 31 31 31 31 31 31 32 32 32 32 33 33 32 32 32 32 32 31 31 31 32 32 31 31 31
28 29 29 29 30 31 31 31 31 31 31 31 32 32 31 31 32 32 32 33 33 33 33 32 32 33 33 32 32 32 32 32 32 32 31 31 31 31
29 30 30 31 31 32 31 31 31 31 31 32 32 32 32 32 32 32 33 34 33 33 33 33 32 33 33 33 33 33 33 33 32 32 31 32 31 31
32 32 32 32 32 32 32 32 32 32 32 32 32 32 33 33 33 34 34 35 34 34 33 33 33 33 33 33 33 33 33 33 33 32 32 31 31 30
34 34 34 33 33 33 33 33 33 33 33 33 33 33 34 34 34 34 34 34 34 34 34 34 34 34 34 33 33 33 33 33 32 32 32 32 31 31
34 34 34 34 34 34 34 34 34 34 34 34 34 34 34 34 34 34 34 35 35 35 34 34 34 34 34 34 33 33 33 32 32 32 32 31 31 30
34 35 35 34 34 35 35 35 35 35 35 35 35 35 34 34 34 35 35 34 34 34 34 34 34 33 33 33 33 32 32 32 31 31 31 31 30 30
36 36 35 35 35 36 36 36 36 36 36 36 36 35 35 35 35 35 35 34 34 34 34 34 34 34 34 34 33 32 31 31 31 30 30 30 29 28
36 37 36 36 36 36 36 37 36 36 36 36 35 35 35 35 35 35 35 34 34 35 35 35 34 33 33 33 32 32 31 31 30 30 30 29 28 28
37 37 37 37 37 37 37 36 36 36 36 36 35 35 35 36 36 36 36 35 35 35 35 34 33 33 33 33 32 31 31 31 31 30 30 29 29 29

GEFSNE_500_meanwind_174.txt.gz
Wind_Speed
13 13 13 14 15 15 15 15 15 15 16 16 17 17 18 18 18 18 18 18 18 19 19 20 21 22 22 23 23 24 24 25 25 25 26 27 27 27
13 14 14 15 15 15 15 15 15 16 16 17 17 18 19 19 19 19 18 19 20 20 21 21 22 23 23 23 24 25 25 24 25 26 27 27 27 28
13 13 13 14 15 15 15 15 15 15 16 17 17 18 18 18 19 19 19 20 21 21 22 22 22 23 23 23 24 24 25 25 26 27 28 27 27 27
13 13 14 14 15 14 15 15 15 16 16 17 18 18 19 19 20 21 21 21 21 21 22 23 23 23 23 24 25 25 26 26 27 28 28 27 28 29
15 15 15 15 15 15 16 16 17 17 18 18 19 19 19 20 20 21 22 22 22 23 23 24 24 24 24 25 26 27 27 27 28 28 28 29 29 30
16 16 16 16 16 16 17 18 18 19 19 20 20 20 20 21 21 21 22 22 23 24 24 25 25 26 26 26 27 27 28 28 28 29 29 30 30 30
17 17 17 17 17 18 19 19 20 20 21 21 21 22 21 21 22 22 23 24 24 25 25 26 26 27 27 27 28 28 28 28 29 29 30 30 30 31
18 19 19 19 19 19 20 21 21 22 22 22 22 23 23 24 24 24 24 25 26 26 27 27 27 27 28 29 29 29 29 30 29 30 30 31 31 31
20 20 20 20 20 21 21 22 22 23 23 23 23 24 24 25 25 26 26 26 27 27 28 28 28 29 29 29 29 29 30 30 30 31 31 31 31 32
21 22 22 22 22 22 23 23 24 24 24 25 25 25 26 26 26 27 27 28 28 29 30 30 30 30 30 31 30 30 30 30 31 31 31 31 31 31
24 23 23 24 24 24 25 25 25 25 26 26 27 27 27 28 28 29 29 29 30 31 31 32 31 32 32 32 31 31 31 31 31 31 31 31 31 31
26 26 25 26 26 27 27 26 26 26 27 28 28 28 29 30 30 30 31 31 31 31 32 33 33 33 33 32 31 31 31 31 31 31 31 31 31 32
27 27 27 27 28 28 28 28 28 28 28 29 30 30 30 31 31 31 31 31 32 32 33 33 34 33 33 33 32 32 32 32 32 32 32 32 32 32
29 29 29 29 29 30 30 30 30 30 30 31 31 31 32 32 32 32 32 33 33 33 33 33 34 33 33 33 33 32 32 33 33 33 33 32 32 32
31 30 30 30 31 32 32 32 32 32 32 32 31 32 33 33 33 33 34 33 33 33 34 34 34 34 34 34 34 33 33 33 33 33 33 33 32 32
32 32 32 32 33 33 33 33 33 33 33 33 33 33 34 34 34 34 34 34 34 34 34 35 34 34 34 35 35 35 34 34 34 33 33 33 32 32
35 34 34 34 34 34 34 34 34 34 33 34 34 34 34 34 34 34 35 35 35 35 35 35 35 35 35 35 35 36 35 35 34 34 33 33 32 32
35 35 35 35 35 35 35 35 34 34 34 34 34 35 35 35 35 35 36 36 35 35 36 36 36 36 36 36 36 37 36 35 35 34 33 33 32 32
38 37 37 36 36 36 36 35 35 35 36 36 36 35 36 36 36 36 36 36 36 37 37 36 36 37 37 36 36 36 36 36 35 34 34 33 32 32
38 38 38 38 38 37 37 37 37 37 37 37 37 36 37 37 37 37 37 36 37 37 38 37 37 37 37 36 36 36 36 35 34 33 33 32 32 31
39 39 39 39 38 38 38 38 38 38 38 37 37 38 38 38 38 38 38 38 38 38 38 38 38 38 37 36 36 35 34 34 34 32 32 32 31 30
40 40 40 40 40 39 39 39 39 39 39 38 38 38 39 39 39 39 39 39 39 39 39 39 38 38 37 36 36 35 34 34 33 32 32 32 31 30
40 40 41 41 41 40 40 40 40 40 40 39 39 39 40 40 39 39 40 40 40 40 39 39 38 38 37 37 36 36 35 35 34 32 32 32 31 31

GEFSNE_500_meanwind_180.txt.gz
Wind_Speed
10 11 12 13 13 13 13 13 14 14 15 15 15 15 16 16 16 16 16 16 17 18 18 18 18 19 19 20 21 22 22 23 24 25 25 25 25 26
10 10 11 12 13 13 13 13 14 14 15 15 15 16 16 16 16 17 17 18 19 19 19 19 20 21 21 22 22 23 23 23 24 25 25 25 26 27
11 12 11 12 12 13 13 13 13 14 15 15 15 16 16 17 17 17 18 19 19 19 19 20 21 22 22 23 23 24 24 25 25 25 26 27 28 28
12 12 13 13 13 13 14 15 15 15 15 15 16 17 17 17 18 19 19 19 19 19 20 21 21 22 23 24 25 24 24 25 26 27 27 27 28 29
12 12 13 14 14 14 15 15 16 16 16 17 18 18 18 19 19 19 19 19 20 20 21 22 23 23 24 26 26 26 26 26 26 27 27 28 29 29
13 14 14 15 15 15 16 16 17 18 18 18 19 19 20 20 20 20 20 20 21 22 23 24 25 25 26 26 26 26 26 26 27 27 28 29 29 30
14 15 16 16 17 17 17 18 19 19 19 19 19 20 20 20 20 21 21 22 22 23 24 25 26 26 26 26 26 26 27 27 28 28 29 30 30 30
16 16 17 17 18 18 19 20 20 20 19 20 20 21 21 21 22 23 23 24 24 25 26 27 27 28 28 27 27 27 28 29 29 29 30 31 31 31
17 17 18 19 19 19 19 20 20 20 21 21 21 22 23 23 24 25 25 26 26 27 28 28 29 29 29 29 29 29 30 30 31 30 31 31 32 32
21 20 20 20 20 21 21 21 21 22 23 23 23 24 25 25 26 27 27 27 28 29 29 30 30 30 30 30 31 31 31 32 32 32 32 32 32 32
23 23 23 22 22 23 23 23 23 24 24 24 25 25 26 27 27 28 28 28 29 30 30 30 30 30 31 31 31 32 32 32 33 33 33 32 32 32
25 25 24 24 24 24 25 25 25 25 26 26 27 28 28 28 28 29 29 30 30 31 31 31 31 31 31 31 32 33 33 33 33 33 33 33 32 32
27 26 26 26 26 26 26 26 27 28 28 28 29 29 29 29 30 30 30 30 30 30 31 31 32 32 32 32 33 33 33 33 33 33 33 33 33 32
28 28 28 28 28 28 28 28 28 29 29 30 30 30 30 30 30 30 30 30 31 31 31 32 32 32 32 32 33 33 34 34 33 33 33 33 33 32
30 30 30 31 31 30 30 30 30 30 30 30 30 31 31 31 31 31 31 32 32 32 32 32 32 32 33 33 32 33 33 33 34 34 34 34 34 33
32 32 32 32 33 32 32 31 31 31 31 31 31 32 32 32 32 32 33 33 34 34 34 33 33 33 33 33 33 33 34 34 35 34 34 34 34 33
34 34 34 35 35 34 34 33 33 33 33 33 33 33 33 34 34 35 34 34 34 34 35 35 34 34 34 34 35 35 35 35 35 35 34 33 33 34
36 36 36 36 36 36 36 35 35 35 35 35 34 35 35 35 35 36 36 35 35 35 36 36 36 36 36 36 36 36 36 36 36 35 35 34 33 33
38 38 38 37 37 37 36 36 36 36 36 36 35 36 36 36 36 36 36 36 36 36 36 36 37 37 36 36 36 36 36 36 36 36 35 35 34 34
39 39 38 38 37 36 36 36 37 37 37 37 36 36 37 37 37 36 36 36 36 36 36 36 37 37 37 37 36 36 37 37 36 36 35 35 34 34
40 40 39 38 37 37 37 38 38 38 38 38 37 37 37 37 37 37 37 37 37 38 38 37 38 38 38 38 37 37 37 37 36 36 36 36 35 35
39 39 39 39 38 38 38 37 38 38 38 38 38 38 37 37 37 37 37 37 38 38 38 38 38 38 38 38 37 37 37 37 37 37 37 37 36 35
39 38 38 38 38 37 37 37 37 38 38 38 38 38 38 37 38 38 38 38 39 39 38 38 38 38 38 38 38 38 37 37 37 37 36 36 36 36

GEFSNE_500_meanwind_186.txt.gz
Wind_Speed
14 15 15 15 15 16 16 17 17 18 18 18 19 18 18 19 19 19 19 19 19 19 20 20 21 21 21 21 22 23 23 23 23 23 24 25 25 26
14 15 16 16 16 16 16 17 17 18 18 19 20 20 19 19 19 20 20 20 20 20 21 21 22 23 22 23 23 24 24 25 26 26 27 27 27 26
14 14 14 14 14 15 15 16 17 18 18 19 20 20 20 20 20 20 20 20 20 21 21 22 22 23 24 24 24 25 26 26 26 27 27 27 27 27
14 14 14 15 16 16 17 17 18 18 19 19 20 20 21 21 21 21 21 21 21 21 22 22 23 23 24 24 25 26 26 27 27 27 27 28 28 28
15 15 16 16 17 17 17 18 18 19 20 21 21 21 22 22 22 22 22 23 23 23 23 23 24 25 25 26 27 27 28 28 29 29 29 28 28 29
15 15 16 17 18 19 19 19 19 20 21 22 22 23 23 23 23 23 24 24 24 24 25 25 25 26 26 27 28 29 29 30 30 30 30 29 29 29
16 17 17 18 19 20 20 20 21 21 22 23 23 23 23 24 25 25 25 25 25 26 27 27 28 28 28 29 30 31 31 31 31 31 31 30 30 30
18 18 19 20 21 21 21 21 22 23 23 24 24 23 23 25 26 26 26 26 27 28 29 29 29 30 30 30 31 31 31 32 32 32 32 32 32 32
20 21 21 21 22 22 23 23 23 24 24 25 25 25 25 26 27 27 27 28 29 29 30 30 30 30 31 31 31 32 32 32 32 32 33 32 32 32
22 22 22 23 23 24 24 25 25 26 26 26 25 25 26 27 28 29 29 30 30 30 31 31 31 31 32 32 32 32 33 33 33 33 33 33 33 33
24 24 24 24 25 25 25 26 26 27 27 27 27 28 28 29 29 30 30 31 31 31 31 32 32 33 33 33 33 33 33 34 34 34 34 34 34 34
26 26 26 27 27 27 27 28 28 29 29 29 29 29 30 31 31 32 32 32 32 32 32 33 33 33 33 34 34 35 35 35 35 35 35 35 35 35
28 28 28 29 28 28 29 29 30 30 31 31 31 31 32 32 32 33 33 34 34 34 34 34 34 34 35 35 35 35 35 35 35 35 36 35 35 35
30 30 30 30 30 30 31 31 31 32 32 32 32 32 33 33 33 34 34 34 34 35 35 35 35 35 36 36 36 36 36 36 36 36 37 37 37 36
31 31 31 32 33 33 33 33 33 33 33 33 34 34 34 34 35 36 36 35 35 36 36 36 37 37 37 37 37 37 37 37 37 37 37 37 37 37
32 32 32 32 33 33 33 33 33 34 34 34 35 35 35 36 36 37 37 37 37 38 38 38 38 38 38 38 38 38 38 38 38 38 38 37 37 37
34 34 34 34 34 35 35 35 35 36 36 37 36 36 36 37 37 37 38 38 39 39 39 39 39 39 39 39 39 39 39 39 38 38 38 37 38 38
35 35 35 36 36 36 36 37 37 38 38 38 38 38 38 39 39 39 39 39 39 39 39 39 39 39 39 39 39 39 38 38 39 39 39 38 38 38
36 36 37 38 38 38 38 38 39 39 39 39 39 39 39 40 39 39 40 40 40 40 40 40 39 39 40 40 40 39 39 39 39 39 39 38 38 38
38 38 39 39 39 39 39 39 39 40 39 39 39 39 39 39 39 40 40 40 40 40 40 40 39 39 39 40 39 39 40 40 40 39 39 38 38 39
39 39 39 39 40 40 40 40 40 40 40 39 39 39 39 40 40 40 40 40 41 41 40 40 40 40 40 39 38 38 39 39 39 39 39 39 39 39
38 39 40 40 40 40 41 41 40 39 39 39 40 40 40 40 40 40 40 40 40 40 39 39 39 40 40 40 40 40 40 40 40 40 39 39 40 39
38 38 39 40 40 40 40 39 39 39 39 39 39 40 40 40 40 40 40 40 40 40 40 40 40 40 40 41 41 41 41 41 40 40 39 39 40 40

GEFSNE_500_meanwind_192.txt.gz
Wind_Speed
10 11 12 12 13 14 15 16 16 16 16 17 17 17 17 18 18 19 20 20 20 21 20 20 20 20 21 20 21 21 22 22 22 23 24 24 24 24
10 11 12 13 14 15 15 16 17 17 17 18 18 18 18 18 18 19 20 21 21 21 21 21 22 22 23 23 22 22 23 24 24 25 25 25 25 25
11 11 12 13 15 16 16 17 17 17 17 18 19 19 19 19 19 19 19 20 21 21 22 22 23 23 23 23 23 24 24 25 26 26 26 26 27 28
12 13 13 14 14 15 16 16 16 17 17 18 18 20 20 21 20 20 20 21 21 22 22 23 23 23 23 24 25 26 26 26 27 27 28 28 29 29
14 14 15 15 15 16 16 16 17 17 18 19 19 21 21 21 21 22 22 23 24 24 24 25 25 25 25 25 26 26 27 28 28 28 28 29 30 30
16 16 16 16 16 17 17 17 18 18 19 20 21 21 22 22 22 23 24 24 25 26 26 26 27 27 27 27 27 28 28 29 29 29 30 30 30 30
18 18 17 18 18 18 19 19 20 20 21 21 22 22 23 23 24 25 25 25 25 25 26 28 28 28 28 28 28 29 29 30 30 31 31 32 32 31
19 20 20 20 20 21 21 21 22 23 23 23 24 24 25 25 25 26 26 25 25 26 27 27 28 29 29 29 29 30 30 31 31 32 32 33 33 33
21 21 22 22 23 23 24 23 24 25 25 25 25 26 26 26 27 27 27 27 27 27 28 29 30 30 30 31 31 32 32 33 33 34 34 34 34 34
23 24 25 25 26 26 26 26 26 26 26 27 27 28 28 28 28 28 28 29 29 29 30 30 31 31 32 32 33 33 33 34 34 34 35 34 34 34
26 26 27 27 28 28 28 27 28 28 28 28 29 28 28 28 28 29 30 30 31 31 31 32 32 33 33 33 33 34 34 35 35 35 35 35 35 35
28 29 29 29 29 29 29 30 30 30 30 29 29 30 30 30 30 31 32 33 33 33 33 34 34 35 34 34 34 34 34 35 35 35 36 36 35 36
30 30 31 31 30 30 31 31 31 31 31 31 31 32 32 33 33 33 34 34 35 35 35 35 35 36 36 36 36 36 36 37 37 37 36 36 36 36
31 31 31 32 31 30 31 31 32 32 32 33 33 34 34 35 35 35 35 36 36 36 37 37 37 37 37 37 37 37 37 38 38 37 37 37 37 37
32 32 32 32 33 33 33 34 34 35 34 35 35 36 36 37 36 36 37 37 37 37 37 38 37 37 37 38 38 38 38 38 38 38 38 38 38 38
32 32 33 34 35 35 36 36 36 36 36 37 37 37 38 37 37 37 37 38 38 38 38 38 38 38 38 38 38 38 38 38 38 38 38 38 38 38
34 34 35 35 36 37 37 37 37 37 38 38 39 40 39 39 39 39 39 39 39 39 39 38 38 38 38 38 38 38 38 38 38 37 37 37 37 38
37 37 37 37 37 38 39 39 39 39 40 40 41 41 41 41 42 41 41 40 40 40 39 39 39 39 39 39 39 39 38 38 38 38 38 38 38 38
38 38 37 37 38 38 39 39 39 40 41 42 41 41 42 42 42 42 41 41 41 41 40 40 39 39 39 39 39 38 38 38 39 39 39 39 39 39
38 38 37 38 39 40 40 40 41 42 42 41 41 42 43 43 43 42 41 41 41 41 41 40 40 39 39 39 39 38 39 39 39 39 40 40 40 40
38 38 39 39 40 40 40 41 42 42 42 43 43 43 43 43 43 42 42 41 41 41 40 40 39 39 39 39 39 39 39 39 40 40 41 41 41 41
38 38 39 40 40 41 41 42 43 42 43 43 43 43 43 43 42 41 41 41 40 39 39 40 40 40 39 39 39 40 40 40 40 41 41 41 41 40
38 38 39 39 40 40 40 41 41 42 43 43 43 42 42 41 41 41 40 40 40 40 39 40 40 40 40 40 40 40 40 40 40 40 40 39 38 38

GEFSNE_500_meanwind_198.txt.gz
Wind_Speed
10 11 12 12 13 14 14 14 15 15 15 15 16 16 16 16 16 16 16 17 17 18 18 19 19 19 20 20 20 20 20 20 21 21 21 22 22 23
11 12 13 13 14 14 15 15 15 16 16 17 17 17 17 17 17 17 17 18 19 20 20 20 21 21 21 21 21 21 22 22 22 23 23 24 24 25
13 14 14 14 15 15 15 16 16 16 16 17 17 18 19 19 19 19 19 20 20 21 21 22 21 22 22 22 23 24 24 24 24 25 25 25 25 25
15 15 15 16 16 16 16 17 17 17 17 17 17 18 19 19 19 20 20 21 20 20 21 22 23 23 22 23 23 24 25 26 26 26 27 27 27 27
17 17 17 18 17 18 18 18 19 19 19 18 18 19 19 19 20 21 21 21 21 22 22 23 23 23 24 24 25 25 25 26 26 27 27 28 28 29
18 19 19 19 19 19 19 20 20 20 20 21 21 21 22 22 22 22 23 23 23 24 24 24 24 24 24 25 26 26 27 27 27 28 28 29 30 30
21 21 21 21 21 21 21 21 22 22 22 23 23 23 24 24 24 24 25 25 25 25 25 25 25 25 26 27 28 28 28 29 29 29 29 30 31 31
23 23 23 22 22 22 22 23 23 24 24 24 25 25 25 26 26 26 27 27 27 26 26 26 26 26 27 27 28 29 29 29 30 30 31 31 31 32
24 25 25 25 25 25 24 24 24 25 26 27 27 27 28 28 28 28 28 28 28 27 27 27 28 28 29 29 30 30 30 30 31 32 32 32 32 32
26 26 27 27 27 27 26 26 26 27 27 27 28 29 29 29 29 28 28 29 29 30 30 30 30 30 30 31 31 31 31 32 32 33 34 34 34 34
28 28 28 28 28 28 28 28 28 28 29 29 29 29 30 30 30 30 30 30 30 30 31 31 32 32 32 32 32 33 33 33 34 34 34 35 35 35
29 29 29 29 29 30 30 30 29 29 30 30 30 31 31 31 31 31 31 31 32 31 32 32 33 33 34 34 35 35 35 35 35 35 35 35 35 35
31 30 29 29 29 30 30 31 31 32 32 32 32 33 33 33 33 33 33 34 33 34 34 35 35 35 36 36 36 36 36 36 36 36 36 35 35 35
31 30 30 30 30 31 31 32 33 34 34 35 35 34 34 34 35 35 36 37 37 37 37 38 38 37 37 37 37 37 37 37 37 36 36 36 36 36
32 32 32 32 32 33 33 33 34 35 35 35 36 36 36 36 37 38 38 39 38 38 38 38 38 38 38 38 38 37 37 37 37 37 37 37 36 37
34 34 35 34 34 35 35 35 35 36 36 37 37 37 37 37 37 38 39 39 38 38 38 38 38 39 39 38 38 37 37 37 38 38 38 38 38 37
36 36 35 36 36 36 37 36 37 37 37 37 38 38 38 38 38 39 39 40 40 40 39 39 39 40 39 39 39 39 38 38 38 39 38 38 37 37
38 38 37 37 37 38 37 38 38 38 38 39 38 38 38 39 39 40 40 41 41 40 41 41 41 40 40 39 39 39 38 38 38 38 38 38 37 37
38 38 38 38 39 39 38 39 39 39 39 40 40 40 40 40 40 40 40 41 41 42 42 42 42 41 40 40 40 40 40 39 39 39 39 38 38 38
38 38 38 39 39 39 39 40 40 39 39 40 41 41 41 41 41 41 42 43 43 43 43 42 42 41 41 41 41 41 41 40 40 39 39 39 39 39
39 40 40 40 40 40 40 40 40 39 40 40 41 40 40 41 41 42 42 43 43 43 43 41 41 40 40 40 40 39 39 39 39 39 39 39 39 39
39 39 40 40 40 41 40 40 40 40 40 40 40 40 40 40 41 41 41 41 42 42 41 40 39 39 39 39 39 39 38 37 38 38 38 38 38 38
38 39 39 39 39 39 39 39 39 40 39 39 38 39 39 40 40 41 41 41 40 40 39 38 39 39 39 39 38 38 38 37 37 38 38 38 38 37

GEFSNE_500_meanwind_204.txt.gz
Wind_Speed
9 10 10 10 10 11 12 12 12 13 14 14 14 15 16 16 17 17 17 18 18 19 19 19 19 19 19 19 20 21 21 22 22 23 22 23 23 23
10 11 11 11 12 12 12 12 13 14 14 14 15 15 15 16 17 17 18 18 18 18 19 20 20 20 20 21 22 22 22 23 24 23 23 23 23 23
11 12 12 12 13 13 14 14 15 15 16 16 16 16 16 16 16 17 18 18 19 19 20 20 21 22 22 22 22 23 24 24 24 24 24 24 25 25
13 13 13 13 14 14 15 16 16 17 17 17 17 17 17 18 18 18 19 19 19 20 20 20 21 22 21 22 23 23 23 24 25 26 27 27 27 27
14 14 14 15 16 16 17 17 18 19 19 19 18 18 19 19 20 20 20 20 20 20 20 21 22 22 22 23 24 24 25 25 25 26 27 28 29 29
16 16 16 17 17 18 19 20 20 21 21 21 20 20 20 21 21 21 21 21 22 22 22 22 22 23 24 24 24 24 25 25 27 28 29 29 30 30
18 18 18 19 20 20 21 21 22 22 23 23 23 22 22 22 22 22 22 23 23 24 24 24 24 25 25 25 25 26 26 27 27 28 29 30 30 30
20 20 20 21 22 22 23 23 24 24 24 25 25 24 24 24 24 24 24 24 24 25 25 25 25 26 27 27 28 28 28 29 29 29 30 30 30 31
22 22 22 22 23 24 24 24 25 25 25 25 25 25 25 25 25 25 26 26 26 26 26 27 27 28 29 29 30 31 30 31 31 32 32 32 31 32
24 24 23 24 25 25 25 26 26 26 27 27 27 26 26 26 27 27 27 28 28 28 29 29 29 30 30 31 31 31 32 32 32 32 32 32 32 32
25 24 25 25 26 26 26 26 27 27 28 28 27 28 28 28 29 30 30 30 30 30 31 31 31 32 32 32 32 33 33 33 34 33 33 33 33 33
26 26 26 27 27 27 27 28 28 28 28 29 29 29 29 30 30 31 31 32 32 32 33 33 33 33 33 34 34 34 35 35 35 35 35 35 35 35
28 28 29 29 28 28 29 29 29 29 29 29 30 31 31 32 32 32 32 33 33 34 35 35 35 35 35 35 35 35 35 35 35 36 36 36 36 36
29 29 30 30 30 30 30 30 30 31 31 31 31 32 32 32 33 33 33 34 35 36 36 36 36 36 36 36 36 36 37 37 37 37 37 37 37 37
30 31 31 31 31 31 32 32 32 32 32 32 32 32 33 33 34 34 35 35 35 36 36 36 36 36 36 36 36 36 36 36 36 36 36 36 37 37
31 31 32 31 32 33 33 33 34 34 34 33 33 33 34 35 35 35 35 36 37 37 38 38 37 37 37 36 36 36 36 37 37 37 37 37 37 37
33 32 33 33 34 33 34 34 35 35 35 35 35 35 35 36 36 36 36 37 37 37 37 38 37 37 36 37 37 37 37 38 38 39 38 38 39 39
34 34 34 34 34 35 34 34 34 34 35 35 36 36 37 37 38 38 38 38 38 37 37 37 37 38 38 38 39 39 39 39 39 39 39 39 38 39
36 36 36 36 35 35 35 35 34 35 36 37 38 38 38 39 39 38 38 37 37 37 37 37 37 38 39 40 40 40 40 39 39 39 39 38 38 38
37 36 36 36 36 36 36 36 36 37 37 38 38 39 39 39 39 38 37 37 37 37 37 37 38 39 40 40 39 39 40 40 39 39 39 38 37 38
38 38 38 38 37 37 36 37 37 38 38 38 38 38 39 38 38 38 38 37 37 37 37 38 38 39 40 40 39 39 38 38 38 38 38 38 38 37
38 38 38 38 38 37 37 37 37 38 38 38 38 38 38 38 38 37 37 37 37 37 37 38 37 38 38 38 37 38 37 37 37 37 36 36 36 36
36 36 36 37 36 36 36 36 37 36 36 36 36 36 36 36 36 36 36 36 36 36 36 37 37 37 36 36 36 36 35 35 35 36 36 36 36 36

GEFSNE_500_meanwind_210.txt.gz
Wind_Speed
11 12 13 13 13 14 15 15 16 16 16 16 16 17 17 17 17 17 17 18 18 18 19 19 19 20 20 21 21 21 22 23 22 23 24 24 25 25
14 14 15 15 14 14 15 15 15 15 15 16 17 17 18 17 17 17 18 19 19 19 19 20 21 20 21 21 22 23 23 24 23 23 24 24 25 25
15 15 16 16 16 16 17 16 16 16 16 16 17 18 18 18 18 19 19 20 20 20 21 21 21 21 22 23 23 24 24 25 25 25 26 26 26 26
17 17 17 16 16 17 17 17 17 18 18 18 19 19 20 20 20 20 20 20 21 22 22 22 22 23 23 24 24 25 25 24 25 25 26 26 27 27
18 19 19 19 19 19 18 19 19 20 20 20 21 21 21 22 22 22 23 23 23 23 23 24 24 24 24 25 25 25 25 25 26 26 26 27 27 28
20 21 21 21 20 20 19 19 20 21 22 22 22 22 23 24 24 24 25 25 25 25 25 25 25 25 25 25 25 25 26 26 27 26 26 27 28 29
23 23 23 22 22 22 22 22 22 22 23 24 24 24 24 25 25 26 26 26 27 27 27 28 28 28 27 27 27 27 27 28 29 28 29 29 29 29
25 25 24 24 24 24 24 24 24 24 24 25 26 26 26 26 27 28 28 28 28 28 29 29 29 29 29 29 29 30 30 30 30 31 31 32 32 32
27 27 27 26 26 26 26 26 26 26 26 26 27 28 28 28 29 29 29 30 30 30 30 31 32 32 32 31 31 31 32 32 33 33 33 34 34 35
27 28 28 29 29 29 29 29 29 29 29 28 28 29 30 30 29 30 30 31 31 31 32 32 33 33 33 33 33 33 33 33 34 35 35 35 36 37
28 29 30 30 31 32 32 32 32 32 32 31 30 30 30 30 30 30 30 31 31 32 33 33 33 34 35 35 35 35 35 35 35 36 37 37 37 37
30 31 32 33 33 34 33 32 32 33 33 33 32 32 31 31 31 31 32 32 32 32 33 34 35 35 35 35 36 36 36 36 36 36 37 37 37 36
32 33 34 35 35 35 34 33 32 33 34 34 33 32 32 32 32 32 33 33 33 33 34 34 35 35 35 35 36 36 36 36 36 36 36 36 36 36
34 34 34 35 35 35 34 34 34 34 34 34 34 33 33 33 33 33 34 34 35 35 35 35 35 35 35 36 36 36 36 36 36 35 35 35 35 35
35 35 35 35 34 34 34 34 34 34 34 35 35 35 36 36 36 35 35 35 36 36 36 36 36 36 36 36 36 36 37 37 37 37 36 35 36 36
35 35 34 35 34 34 34 33 34 34 35 36 36 37 37 37 37 37 37 37 37 38 38 38 37 37 37 37 37 38 38 38 38 38 37 37 37 37
35 35 35 35 35 35 35 35 36 36 36 37 38 38 38 38 38 38 38 39 39 39 39 38 38 38 38 38 38 37 38 38 38 38 37 37 37 37
36 36 36 36 36 36 37 37 37 37 37 38 38 38 38 38 39 40 40 40 40 39 39 39 39 38 39 39 38 38 38 38 38 38 38 38 38 38
36 36 36 37 37 38 38 38 38 39 39 39 39 39 39 39 39 39 39 39 39 40 40 39 38 39 39 39 39 39 39 38 38 38 38 38 38 38
35 35 36 37 37 38 38 39 40 40 40 40 39 39 38 38 39 39 40 40 40 40 40 40 40 40 39 39 40 40 39 39 39 38 38 39 39 39
36 36 37 37 38 38 39 39 39 39 39 39 38 38 39 38 38 38 39 39 40 40 40 40 40 39 38 39 39 40 39 39 39 39 39 39 38 38
38 38 38 39 39 39 39 39 39 38 38 38 38 39 39 39 39 39 39 40 40 39 39 39 39 38 38 38 38 38 38 38 38 38 38 38 37 38
39 39 39 38 38 38 38 38 37 37 37 37 38 39 38 38 39 39 38 38 38 37 37 37 37 37 37 37 37 36 36 36 37 37 37 36 36 36

GEFSNE_500_meanwind_216.txt.gz
Wind_Speed
12 13 13 14 14 14 15 15 16 16 17 18 19 19 19 19 18 18 18 17 18 19 19 19 19 20 21 20 21 22 23 23 23 24 23 24 24 24
14 14 14 15 16 16 16 17 17 18 18 19 19 20 20 19 19 19 18 18 19 19 20 20 20 20 21 21 22 23 23 23 24 25 25 25 25 26
16 16 17 17 17 17 18 18 19 19 19 19 20 20 20 20 20 21 21 21 21 21 21 21 21 22 22 23 24 24 24 24 24 25 26 26 26 27
17 18 18 19 19 19 19 19 19 19 20 20 20 21 21 22 22 22 22 23 23 23 23 23 23 23 24 25 24 25 25 25 25 26 26 27 27 28
19 19 20 20 20 20 20 20 20 20 20 20 21 22 22 23 24 24 24 24 25 25 25 26 26 26 26 26 26 26 26 26 27 27 27 27 27 28
22 22 23 22 23 22 22 22 23 23 22 22 22 23 23 24 24 25 26 26 27 27 27 28 27 28 28 27 27 27 28 28 28 29 28 28 29 29
24 24 24 25 25 25 25 25 26 26 25 25 25 25 24 25 25 26 27 28 28 28 29 29 29 29 29 28 28 28 29 30 30 31 31 31 30 30
25 26 26 27 28 28 28 28 27 27 27 27 27 28 27 28 28 28 29 29 29 28 28 29 30 30 30 30 30 31 31 32 32 33 33 32 32 32
27 27 27 27 29 29 29 29 29 29 29 30 30 30 30 30 30 30 30 31 30 30 30 30 30 30 31 31 32 33 34 34 34 34 34 34 34 34
28 28 29 29 30 30 30 30 31 31 31 31 32 32 32 32 32 32 32 32 31 31 31 32 32 32 32 32 33 33 33 34 34 35 35 34 34 35
30 30 30 30 31 31 32 32 33 32 33 34 33 33 33 33 33 33 33 33 33 33 32 32 33 33 33 34 35 34 34 34 34 35 35 35 35 35
31 31 31 31 32 33 34 34 34 34 35 35 35 34 34 34 34 34 34 34 34 34 33 34 34 35 35 35 35 35 35 35 35 35 35 35 35 36
33 33 33 33 34 35 35 36 36 36 36 35 36 36 35 35 35 34 34 35 35 35 35 35 35 36 36 35 35 35 36 36 36 36 36 36 35 35
35 36 35 35 35 36 36 36 37 37 36 36 37 37 37 37 36 35 34 35 35 36 36 37 37 37 37 37 36 36 37 37 38 38 37 37 36 35
37 37 36 36 36 36 37 37 37 37 37 38 38 38 38 38 38 37 36 35 36 36 37 37 37 37 38 38 38 37 37 37 38 38 37 37 36 35
38 37 37 37 38 38 38 38 38 38 39 38 38 37 37 37 38 38 38 38 38 37 37 38 38 39 39 39 39 39 39 38 37 37 36 36 37 37
39 39 39 39 39 39 39 39 39 38 38 38 38 38 38 38 38 38 38 38 38 38 38 38 38 39 40 40 39 39 38 38 38 37 38 38 37 36
39 40 39 39 39 39 39 39 38 38 38 38 38 38 38 38 38 38 38 38 38 38 38 38 39 39 40 40 40 40 40 39 38 38 37 38 37 37
39 39 40 40 40 39 39 38 38 38 38 38 38 38 38 38 39 39 38 38 38 38 38 39 39 39 40 41 40 40 40 39 38 38 38 38 38 37
38 39 39 39 38 38 38 38 38 38 39 39 38 38 38 38 38 38 38 38 39 39 39 39 39 38 39 40 40 39 39 38 38 37 37 37 37 38
37 38 38 38 39 38 37 37 37 37 38 38 38 38 38 37 37 37 38 38 38 38 38 39 39 39 39 39 39 38 38 38 38 38 38 37 37 38
36 37 38 39 39 39 38 38 38 38 38 37 37 37 37 37 37 38 38 38 38 38 38 39 39 39 40 39 38 38 38 38 38 37 37 37 36 36
36 36 37 38 38 38 37 37 37 37 37 37 36 36 36 37 37 37 37 37 38 38 38 38 38 39 38 37 37 37 37 36 36 36 36 36 37 36

GEFSNE_500_meanwind_222.txt.gz
Wind_Speed
13 13 13 14 14 14 15 15 16 16 16 17 17 17 18 19 19 19 19 19 18 18 18 18 18 18 19 19 19 20 20 20 21 22 22 22 23 22
15 15 15 15 15 16 16 17 17 17 16 17 18 18 18 19 18 19 20 20 19 19 19 19 20 20 20 20 20 20 20 21 22 23 23 22 22 23
16 16 16 17 17 17 17 17 18 18 18 18 18 19 19 18 18 19 19 20 20 20 20 21 21 21 22 21 21 21 21 22 23 23 23 23 23 24
18 18 18 19 19 19 19 19 19 19 20 20 20 19 19 19 19 20 20 20 20 21 21 22 23 23 23 24 23 23 23 23 23 24 24 24 24 25
20 20 21 20 21 21 21 22 22 22 22 22 22 22 22 21 21 22 22 22 22 22 23 23 24 24 25 25 24 24 24 24 24 24 24 25 24 25
23 23 23 23 23 23 24 24 24 24 23 23 24 24 24 24 24 24 24 24 24 24 24 24 25 26 26 26 25 24 24 24 25 25 25 26 25 26
26 25 26 26 26 26 26 26 26 26 26 26 26 26 26 26 26 25 25 26 26 26 26 26 26 26 26 26 26 26 26 26 26 27 27 27 27 27
28 28 28 28 29 29 28 28 28 28 28 28 28 29 28 28 28 28 27 27 27 27 27 26 26 26 27 27 27 27 27 27 28 28 28 28 28 28
31 30 30 30 31 30 29 29 29 29 29 28 29 29 30 30 30 30 29 29 29 28 28 28 28 28 29 29 28 28 28 28 28 29 29 28 28 28
33 33 32 32 32 32 31 30 30 30 30 30 30 31 31 31 32 32 31 31 31 31 31 31 30 30 30 30 29 29 29 29 29 29 29 30 30 30
34 34 34 34 34 33 33 32 31 31 32 32 33 33 33 33 33 33 33 33 32 32 33 33 32 31 30 30 30 30 30 29 30 30 31 31 31 32
35 36 36 36 37 36 34 33 33 33 33 33 33 33 34 34 34 34 34 34 34 34 35 34 33 33 32 31 31 31 31 31 31 31 32 32 32 33
37 37 37 37 37 36 35 34 34 33 33 33 33 34 34 34 34 35 35 35 35 35 35 34 34 33 33 32 32 32 32 32 32 33 33 34 34 35
38 38 37 37 37 36 36 35 34 34 34 34 34 34 34 35 35 35 34 34 35 35 34 34 34 34 34 34 33 33 33 33 33 34 35 36 36 36
39 39 38 37 37 36 36 36 35 35 35 35 35 35 35 35 35 35 35 35 36 35 35 35 35 35 35 35 35 35 35 35 35 35 36 36 36 36
40 40 40 39 38 37 37 37 37 37 37 38 38 37 37 37 36 36 36 36 36 36 35 35 35 35 35 35 35 35 35 35 35 36 36 36 36 36
40 40 40 39 39 39 39 39 39 39 38 38 38 38 38 38 37 36 36 36 35 35 35 35 35 35 36 36 36 36 36 36 35 36 36 36 36 35
40 39 38 38 38 38 37 37 38 38 38 38 38 38 37 37 36 36 36 36 35 35 35 36 36 36 37 37 37 37 36 35 35 35 36 36 35 36
38 38 37 37 36 36 36 36 36 36 36 37 37 37 37 36 36 36 36 36 36 35 35 35 36 36 36 37 37 37 36 35 35 35 34 35 35 35
36 35 35 35 35 35 35 35 35 35 36 36 36 36 36 36 36 35 35 35 36 36 35 36 35 35 36 36 36 36 36 36 36 35 35 35 35 35
34 34 34 34 34 34 35 35 35 35 36 36 36 36 36 35 36 36 36 36 36 35 35 35 35 35 35 35 35 34 35 35 36 35 35 34 34 33
34 34 33 33 34 34 35 35 35 35 35 35 35 35 35 34 35 35 35 36 36 36 35 35 35 35 34 34 34 34 34 35 35 35 35 34 34 34
34 34 33 34 34 34 34 34 35 35 35 35 35 35 34 34 35 36 36 36 35 35 35 35 35 36 36 36 35 34 34 34 35 35 35 35 35 34

GEFSNE_500_meanwind_228.txt.gz
Wind_Speed
12 13 13 13 11 11 12 12 14 14 15 16 16 16 16 16 16 17 17 18 19 19 18 18 19 19 19 19 19 19 19 19 20 20 20 20 21 22
13 13 14 14 14 13 13 14 14 15 16 17 17 17 17 18 18 18 18 18 19 20 20 20 20 20 20 21 21 20 20 21 21 21 22 22 23 22
16 16 16 16 16 16 16 16 16 16 17 17 17 18 19 19 19 19 19 19 19 20 20 21 22 22 22 22 23 22 22 22 22 23 23 24 24 23
17 17 17 18 18 18 18 18 18 18 18 18 18 19 19 19 20 20 20 20 20 21 22 23 22 22 23 24 24 24 24 23 24 24 25 25 24 25
19 19 19 19 19 19 19 19 19 19 19 19 20 20 20 21 21 21 22 22 22 23 23 23 23 23 24 25 24 24 24 25 24 25 24 24 25 25
22 22 22 21 21 21 22 22 22 22 22 22 22 22 22 22 23 24 24 24 24 24 24 24 24 25 25 25 25 26 26 26 26 26 26 26 27 27
25 25 25 25 25 24 24 24 25 24 24 24 24 24 24 25 25 25 26 26 26 26 26 26 26 26 26 26 27 27 27 27 28 28 28 28 28 29
26 26 26 27 27 27 26 26 26 26 26 26 26 26 26 27 27 26 26 26 26 27 27 27 28 27 28 27 28 28 28 29 29 29 29 30 30 30
28 28 28 28 29 29 29 29 29 29 29 29 28 28 28 28 29 28 28 28 28 28 28 28 28 28 29 29 30 30 29 30 30 30 31 31 31 30
29 29 29 30 31 31 32 32 31 31 32 32 31 30 30 30 30 30 29 29 29 29 29 29 29 30 31 31 31 31 32 31 30 30 31 31 31 31
30 30 31 32 33 33 33 33 32 31 32 32 32 32 31 31 31 31 31 30 30 30 30 30 30 31 32 33 33 33 33 33 31 31 32 32 32 32
31 31 31 32 33 34 34 34 32 32 32 32 33 33 32 32 32 32 32 31 31 31 32 32 32 32 33 34 34 33 33 33 33 33 33 33 34 34
33 33 33 34 34 35 34 34 33 33 33 33 33 33 33 33 33 33 32 33 33 33 33 34 34 34 34 34 34 33 33 33 34 34 34 34 35 35
34 34 35 35 36 36 36 35 35 35 35 35 35 35 35 34 34 34 34 34 34 34 34 34 35 35 35 35 34 34 34 34 34 34 34 35 36 36
36 36 36 36 36 36 36 36 36 37 37 37 37 37 37 36 36 35 35 35 36 35 34 34 34 34 35 34 35 34 34 34 34 34 35 35 35 36
36 37 36 36 36 36 36 37 38 38 38 38 38 38 38 38 37 36 36 36 36 35 34 34 34 34 34 34 35 34 34 35 35 35 35 35 36 36
37 37 37 37 38 38 38 39 39 38 38 37 37 37 37 38 37 37 37 37 36 35 34 34 34 34 34 35 34 33 34 34 34 35 35 36 36 37
38 38 38 39 39 39 40 39 39 38 37 37 37 37 37 38 38 37 37 36 35 34 34 34 34 35 35 35 34 35 35 34 35 35 35 35 35 35
38 38 38 38 39 39 39 38 37 36 36 36 37 37 37 37 37 37 37 37 36 36 36 36 36 36 36 35 35 35 35 34 34 34 34 35 35 35
38 38 38 38 38 38 37 37 36 36 36 36 37 37 37 37 37 37 37 37 38 37 37 36 36 37 37 36 36 36 36 36 35 35 35 35 34 34
36 36 36 36 37 37 36 36 36 36 36 36 36 36 36 37 37 37 36 36 36 36 37 37 37 37 37 37 37 36 36 36 36 35 35 35 35 35
35 35 36 36 36 36 36 36 36 35 35 35 35 36 36 36 36 35 35 35 36 36 36 37 37 37 37 37 36 36 36 36 36 35 36 36 35 35
34 34 34 33 33 33 33 34 34 34 34 34 34 34 35 35 34 35 35 36 36 36 36 36 36 36 36 36 36 36 36 36 36 36 36 35 35 35

GEFSNE_500_meanwind_234.txt.gz
Wind_Speed
17 17 17 17 18 19 19 18 18 18 17 18 19 19 19 19 19 19 19 19 19 19 20 19 20 20 21 21 21 21 22 21 21 21 22 22 22 22
18 18 19 20 20 20 20 20 20 20 19 19 19 20 20 20 20 20 20 20 21 21 22 22 21 21 22 21 22 22 22 22 23 23 23 23 23 23
20 20 21 21 21 21 21 21 21 21 21 21 20 21 21 21 21 21 22 22 22 23 23 24 23 23 23 23 23 23 24 24 25 25 25 25 26 26
22 22 22 23 23 23 23 22 22 22 22 22 22 22 22 22 23 23 24 24 25 25 25 25 25 25 24 24 24 25 25 25 25 26 26 27 28 27
23 23 24 24 24 24 24 24 24 24 24 24 24 24 24 24 25 25 25 25 26 26 26 26 26 26 25 25 26 26 26 27 27 27 27 27 28 28
25 25 25 26 26 26 26 26 26 26 26 26 26 27 27 27 27 27 27 27 27 28 28 27 27 27 27 28 28 28 29 29 29 29 29 29 29 29
27 27 28 28 28 29 29 29 29 29 29 29 29 29 30 30 30 30 30 30 29 29 29 28 28 29 29 29 30 30 30 30 30 30 30 29 29 29
29 30 30 31 31 31 32 32 32 32 32 33 32 32 31 32 32 32 31 31 30 31 31 30 31 31 31 31 32 32 32 32 32 32 31 31 31 31
31 32 32 33 34 34 34 35 35 35 34 34 34 33 34 34 33 33 33 32 32 32 32 32 32 33 33 32 33 33 33 33 33 33 33 33 33 33
33 34 35 36 36 36 36 36 36 36 35 35 34 35 36 36 35 35 34 34 34 33 33 34 34 34 34 33 33 33 32 33 34 34 34 34 34 34
35 35 36 37 37 36 37 38 37 36 37 37 37 36 36 36 36 36 35 36 35 34 34 34 34 34 34 34 34 34 34 34 34 35 36 36 35 35
37 37 36 37 36 36 36 37 36 35 36 37 38 37 37 37 37 37 37 37 37 36 35 35 35 35 35 35 36 35 35 35 36 36 37 37 36 36
37 37 36 36 36 36 37 37 36 36 37 37 37 37 37 37 38 38 38 38 38 37 36 36 36 36 36 35 36 36 35 35 35 36 36 37 36 36
36 37 36 36 36 37 37 38 38 38 38 38 38 38 38 38 38 39 40 40 39 38 37 36 36 36 36 36 36 37 36 37 37 37 36 37 36 36
37 38 38 37 37 38 38 38 39 39 39 39 39 39 39 39 40 40 41 40 39 38 38 37 36 36 37 37 37 37 37 37 37 37 37 37 37 37
38 38 38 38 38 38 39 39 39 39 39 39 39 39 40 40 41 41 41 40 40 38 38 38 38 38 38 38 38 38 38 38 38 38 38 37 37 37
37 37 38 39 39 39 39 39 40 40 40 39 40 40 40 41 41 41 41 41 40 39 39 39 39 39 39 40 39 39 39 39 39 38 38 38 38 37
37 37 37 38 39 40 40 40 40 41 40 40 40 41 41 41 41 41 40 40 40 39 39 39 39 40 40 40 40 41 40 40 40 39 39 38 38 37
37 37 37 38 38 39 40 40 40 40 40 40 40 41 41 40 39 39 39 39 39 39 38 39 39 40 41 41 41 42 41 41 40 39 38 38 38 36
36 36 37 37 38 39 39 39 40 40 40 40 40 40 40 39 38 38 38 38 38 39 39 40 39 40 40 41 41 40 41 41 40 40 39 38 37 36
36 36 37 37 37 37 38 38 38 39 39 39 39 40 39 38 38 37 38 38 38 38 39 39 40 40 40 40 39 39 39 40 40 40 38 38 37 37
36 36 37 37 37 37 37 37 37 37 37 37 38 37 37 37 37 37 38 38 38 38 38 38 39 39 39 39 39 38 39 39 39 39 39 38 37 36
35 35 35 35 36 36 36 36 36 36 36 36 37 37 36 36 36 36 36 37 37 37 36 37 37 38 39 39 38 38 37 37 37 37 37 38 38 38

GEFSNE_500_meanwind_240.txt.gz
Wind_Speed
18 18 18 18 18 19 19 19 19 19 19 19 19 19 20 20 20 20 19 19 19 19 19 20 20 21 21 22 22 22 22 22 22 22 22 22 21 21
20 21 21 20 20 20 20 20 20 21 21 21 21 21 21 22 22 21 21 20 21 21 22 22 22 23 23 23 23 23 23 23 23 23 23 23 23 23
21 22 22 21 22 22 21 21 21 21 22 22 23 23 23 23 23 24 23 23 23 24 24 24 24 24 24 24 24 24 24 24 24 24 24 24 24 25
22 23 23 23 23 23 23 23 23 23 24 24 25 25 25 25 25 25 25 25 25 25 26 26 26 26 26 25 25 25 26 26 25 25 25 26 26 26
23 23 23 24 24 25 25 25 26 26 26 26 26 27 27 27 27 27 27 27 27 27 27 27 27 27 27 26 26 27 27 27 27 27 27 27 28 28
24 25 25 26 27 27 27 27 28 28 28 28 28 29 29 29 29 29 29 29 29 29 29 28 28 28 28 28 28 28 29 29 29 29 29 29 29 29
27 27 27 28 29 29 30 30 30 30 30 30 31 31 31 31 31 32 32 32 32 32 32 31 31 31 30 30 30 30 31 31 31 31 31 30 30 30
30 30 30 30 31 32 32 33 33 33 33 33 33 33 33 33 33 34 34 34 33 33 34 34 33 33 33 32 32 32 32 33 33 32 32 32 32 31
32 33 33 34 34 34 35 35 36 36 35 34 34 34 34 35 36 35 35 35 34 34 34 34 34 35 35 35 34 34 33 33 34 34 33 33 32 33
34 34 35 36 36 37 37 37 38 37 37 37 36 37 37 36 37 37 36 37 37 36 35 35 35 35 36 35 34 34 33 33 33 33 33 33 33 33
35 35 36 36 37 38 39 39 39 39 39 38 38 39 39 39 38 38 38 39 39 37 36 36 36 36 36 35 35 34 34 34 33 33 33 33 33 34
36 36 37 38 39 39 40 41 41 39 39 39 39 40 40 40 40 39 39 40 39 38 37 37 37 36 36 35 35 35 35 35 35 34 34 34 34 34
38 38 38 39 39 40 41 40 40 39 39 39 40 40 40 40 40 40 40 39 39 39 38 38 38 38 38 37 37 36 36 36 36 35 35 36 35 35
39 39 39 40 40 41 40 41 41 40 40 41 41 41 41 40 40 39 39 39 39 39 39 39 39 39 39 38 38 38 37 37 37 36 36 36 36 36
40 40 40 39 39 39 40 40 40 40 40 40 41 41 40 40 40 39 39 39 39 39 39 39 39 39 40 40 40 39 39 38 37 37 37 37 37 37
40 40 40 40 41 41 40 40 40 39 40 40 40 40 39 39 40 40 40 39 39 39 39 39 40 40 40 40 40 40 39 39 38 38 38 38 38 38
41 41 41 41 41 41 42 42 41 40 39 40 40 40 40 39 40 40 40 40 40 40 40 40 40 40 39 40 40 40 39 39 38 38 38 38 38 38
39 40 41 41 41 41 41 40 39 38 38 38 39 40 40 40 40 40 40 40 40 40 40 40 41 41 41 41 40 39 39 39 39 39 39 38 38 38
40 40 39 40 41 40 39 38 37 36 36 37 38 39 39 39 40 40 40 40 40 40 41 41 41 41 41 41 39 39 39 39 39 40 40 39 39 38
39 40 40 40 39 37 37 36 36 36 36 36 37 38 38 39 40 40 40 40 40 40 40 41 41 40 40 40 40 40 40 39 39 40 40 39 38 38
38 38 38 37 36 36 35 35 35 35 36 36 36 37 37 38 38 39 39 39 39 39 39 39 40 40 39 39 39 39 39 38 38 38 38 38 37 37
36 36 35 35 34 34 34 34 34 35 35 36 36 36 36 36 37 37 37 37 37 37 37 37 38 38 38 38 37 37 36 36 36 36 36 36 36 36
33 33 33 33 33 32 33 34 34 34 34 34 34 34 34 34 34 34 34 34 34 33 34 35 35 36 36 36 36 35 35 35 35 35 35 35 35 35